| time (UTC) | temp F | wind direction | speed MPH | gust MPH | rain 1hr in | rain 24hr in | rain mn in | humidity % | barometer mb |
| 20260506003329 | 55 | 297 | 0.0 | 0.0 | 0.00 | 0.40 | 0.40 | 94 | 1001.8 |
| 20260506003228 | 55 | 297 | 0.0 | 0.0 | 0.00 | 0.40 | 0.40 | 94 | 1001.8 |
| 20260506002901 | 55 | 297 | 0.0 | 0.0 | 0.00 | 0.40 | 0.40 | 94 | 1001.9 |
| 20260506002757 | 55 | 297 | 0.0 | 0.0 | 0.00 | 0.40 | 0.40 | 94 | 1001.8 |
| 20260506002654 | 55 | 297 | 0.0 | 0.0 | 0.00 | 0.40 | 0.40 | 94 | 1001.7 |
| 20260506002551 | 55 | 298 | 0.0 | 0.0 | 0.00 | 0.40 | 0.40 | 94 | 1001.7 |
| 20260506002446 | 55 | 217 | 0.0 | 0.0 | 0.00 | 0.40 | 0.40 | 94 | 1001.8 |
| 20260506002339 | 55 | 108 | 0.0 | 0.0 | 0.00 | 0.40 | 0.40 | 94 | 1001.8 |
| 20260506002235 | 55 | 129 | 0.0 | 0.0 | 0.00 | 0.40 | 0.40 | 94 | 1001.9 |
| 20260506001907 | 55 | 129 | 0.0 | 0.0 | 0.00 | 0.40 | 0.40 | 94 | 1001.8 |
| 20260506001801 | 55 | 129 | 0.0 | 0.0 | 0.00 | 0.40 | 0.40 | 94 | 1001.8 |
| 20260506001655 | 55 | 129 | 0.0 | 0.0 | 0.00 | 0.40 | 0.40 | 94 | 1001.7 |
| 20260506001550 | 55 | 129 | 0.0 | 0.0 | 0.00 | 0.40 | 0.40 | 94 | 1001.8 |
| 20260506001446 | 55 | 129 | 0.0 | 0.0 | 0.00 | 0.40 | 0.40 | 94 | 1001.7 |
| 20260506001343 | 55 | 129 | 0.0 | 0.0 | 0.00 | 0.40 | 0.40 | 94 | 1001.7 |
| 20260506001023 | 56 | 271 | 0.0 | 0.0 | 0.00 | 0.40 | 0.40 | 94 | 1001.7 |
| 20260506000921 | 56 | 271 | 0.0 | 0.0 | 0.00 | 0.40 | 0.40 | 94 | 1001.7 |
| 20260506000817 | 56 | 271 | 0.0 | 0.0 | 0.00 | 0.40 | 0.40 | 94 | 1001.7 |
| 20260506000712 | 56 | 271 | 0.0 | 0.0 | 0.00 | 0.40 | 0.40 | 94 | 1001.7 |
| 20260506000611 | 56 | 271 | 0.0 | 0.0 | 0.00 | 0.40 | 0.40 | 94 | 1001.6 |
| 20260506000505 | 56 | 271 | 0.0 | 0.0 | 0.00 | 0.40 | 0.40 | 94 | 1001.7 |
| 20260506000401 | 56 | 271 | 0.0 | 0.0 | 0.00 | 0.40 | 0.40 | 94 | 1001.6 |
| 20260506000041 | 56 | 271 | 0.0 | 0.0 | 0.03 | 0.40 | 0.40 | 94 | 1001.6 |
| 20260505235937 | 56 | 271 | 0.0 | 0.0 | 0.03 | 0.40 | 0.40 | 94 | 1001.6 |
| 20260505235835 | 56 | 271 | 0.0 | 0.0 | 0.03 | 0.40 | 0.40 | 94 | 1001.5 |
| 20260505235733 | 56 | 271 | 0.0 | 0.0 | 0.03 | 0.40 | 0.40 | 94 | 1001.6 |
| 20260505235151 | 56 | 271 | 0.0 | 0.0 | 0.06 | 0.40 | 0.40 | 94 | 1001.4 |
| 20260505235047 | 56 | 271 | 0.0 | 0.0 | 0.07 | 0.40 | 0.40 | 94 | 1001.5 |
| 20260505234943 | 56 | 271 | 0.0 | 0.0 | 0.09 | 0.40 | 0.40 | 94 | 1001.5 |
| 20260505234840 | 56 | 271 | 0.0 | 0.0 | 0.11 | 0.40 | 0.40 | 94 | 1001.5 |
| 20260505234735 | 56 | 271 | 0.0 | 0.0 | 0.15 | 0.40 | 0.40 | 94 | 1001.4 |
| 20260505234631 | 56 | 271 | 0.0 | 0.0 | 0.24 | 0.40 | 0.40 | 94 | 1001.4 |
| 20260505234309 | 56 | 219 | 0.0 | 0.0 | 0.03 | 0.39 | 0.39 | 94 | 1001.4 |
| 20260505234206 | 56 | 219 | 0.0 | 0.0 | 0.03 | 0.39 | 0.39 | 94 | 1001.4 |
| 20260505234104 | 56 | 219 | 0.0 | 0.0 | 0.03 | 0.39 | 0.39 | 94 | 1001.3 |
| 20260505233959 | 56 | 219 | 0.0 | 0.0 | 0.04 | 0.39 | 0.39 | 94 | 1001.4 |
| 20260505233201 | 56 | 238 | 0.0 | 0.0 | 0.13 | 0.39 | 0.39 | 94 | 1001.4 |
| 20260505232838 | 56 | 238 | 0.0 | 0.0 | 0.00 | 0.38 | 0.38 | 94 | 1001.2 |
| 20260505232736 | 56 | 238 | 0.0 | 0.0 | 0.00 | 0.38 | 0.38 | 94 | 1001.2 |
| 20260505232631 | 56 | 238 | 0.0 | 0.0 | 0.00 | 0.37 | 0.38 | 94 | 1001.2 |
| 20260505232050 | 56 | 200 | 0.0 | 0.0 | 0.00 | 0.37 | 0.37 | 94 | 1001.0 |
| 20260505231946 | 56 | 200 | 0.0 | 0.0 | 0.00 | 0.37 | 0.37 | 94 | 1001.0 |
| 20260505231842 | 56 | 200 | 0.0 | 0.0 | 0.00 | 0.37 | 0.37 | 94 | 1001.0 |
| 20260505231736 | 56 | 211 | 0.0 | 0.0 | 0.00 | 0.37 | 0.37 | 94 | 1001.0 |
| 20260505231630 | 56 | 211 | 0.0 | 0.0 | 0.00 | 0.37 | 0.37 | 94 | 1001.0 |
| 20260505231528 | 56 | 211 | 0.0 | 0.0 | 0.00 | 0.37 | 0.37 | 94 | 1000.9 |
| 20260505231203 | 56 | 211 | 0.0 | 0.0 | 0.00 | 0.37 | 0.37 | 94 | 1000.7 |
| 20260505231057 | 56 | 211 | 0.0 | 0.0 | 0.00 | 0.37 | 0.37 | 94 | 1000.8 |
| 20260505230953 | 56 | 196 | 0.0 | 0.0 | 0.00 | 0.37 | 0.37 | 94 | 1000.7 |
| 20260505230410 | 56 | 224 | 0.0 | 0.0 | 0.00 | 0.37 | 0.37 | 93 | 1000.7 |
| 20260505230302 | 56 | 224 | 0.0 | 0.0 | 0.00 | 0.37 | 0.37 | 93 | 1000.6 |
| 20260505230156 | 56 | 224 | 0.0 | 0.0 | 0.00 | 0.37 | 0.37 | 93 | 1000.5 |
| 20260505230049 | 56 | 224 | 0.0 | 0.0 | 0.00 | 0.37 | 0.37 | 93 | 1000.5 |
| 20260505225944 | 56 | 224 | 0.0 | 0.0 | 0.00 | 0.37 | 0.37 | 93 | 1000.5 |
| 20260505225837 | 56 | 224 | 0.0 | 0.0 | 0.00 | 0.37 | 0.37 | 93 | 1000.5 |
| 20260505225730 | 57 | 224 | 0.0 | 0.0 | 0.00 | 0.37 | 0.37 | 93 | 1000.5 |
| 20260505225625 | 57 | 224 | 0.0 | 0.0 | 0.00 | 0.37 | 0.37 | 93 | 1000.5 |
| 20260505225520 | 57 | 234 | 0.0 | 0.0 | 0.00 | 0.37 | 0.37 | 93 | 1000.5 |
| 20260505225152 | 57 | 346 | 0.0 | 0.0 | 0.00 | 0.37 | 0.37 | 93 | 1000.4 |
| 20260505225049 | 57 | 346 | 0.0 | 0.0 | 0.00 | 0.37 | 0.37 | 93 | 1000.4 |
| 20260505224942 | 57 | 346 | 0.0 | 0.0 | 0.00 | 0.37 | 0.37 | 93 | 1000.4 |
| 20260505224837 | 57 | 55 | 0.0 | 0.0 | 0.00 | 0.37 | 0.37 | 93 | 1000.3 |
| 20260505224729 | 57 | 55 | 0.0 | 0.0 | 0.00 | 0.37 | 0.37 | 93 | 1000.2 |
| 20260505224626 | 57 | 55 | 0.0 | 0.0 | 0.00 | 0.37 | 0.37 | 93 | 1000.2 |
| 20260505224521 | 57 | 55 | 0.0 | 0.0 | 0.00 | 0.37 | 0.37 | 93 | 1000.0 |
| 20260505224414 | 57 | 55 | 0.0 | 0.0 | 0.00 | 0.37 | 0.37 | 93 | 1000.0 |
| 20260505224310 | 57 | 55 | 0.0 | 0.0 | 0.00 | 0.37 | 0.37 | 93 | 999.9 |
| 20260505223729 | 57 | 55 | 0.0 | 0.0 | 0.00 | 0.37 | 0.37 | 93 | 999.9 |
| 20260505223405 | 57 | 55 | 0.0 | 0.0 | 0.00 | 0.37 | 0.37 | 93 | 999.8 |
| 20260505223258 | 57 | 55 | 0.0 | 0.0 | 0.00 | 0.37 | 0.37 | 93 | 999.8 |
| 20260505223153 | 57 | 55 | 0.0 | 0.0 | 0.00 | 0.37 | 0.37 | 93 | 999.8 |
| 20260505223048 | 57 | 55 | 0.0 | 0.0 | 0.00 | 0.37 | 0.37 | 93 | 999.8 |
| 20260505222945 | 57 | 55 | 0.0 | 0.0 | 0.00 | 0.37 | 0.37 | 93 | 999.8 |
| 20260505222838 | 57 | 55 | 0.0 | 0.0 | 0.00 | 0.37 | 0.37 | 93 | 999.7 |
| 20260505222732 | 57 | 55 | 0.0 | 0.0 | 0.00 | 0.37 | 0.37 | 93 | 999.7 |
| 20260505222628 | 57 | 55 | 0.0 | 0.0 | 0.00 | 0.37 | 0.37 | 93 | 999.7 |
| 20260505222524 | 57 | 55 | 0.0 | 0.0 | 0.00 | 0.37 | 0.37 | 93 | 999.7 |
| 20260505222417 | 57 | 55 | 0.0 | 0.0 | 0.00 | 0.37 | 0.37 | 93 | 999.7 |
| 20260505222315 | 57 | 55 | 0.0 | 0.0 | 0.00 | 0.37 | 0.37 | 93 | 999.6 |
| 20260505222208 | 57 | 55 | 0.0 | 0.0 | 0.00 | 0.37 | 0.37 | 93 | 999.5 |
| 20260505222103 | 57 | 55 | 0.0 | 0.0 | 0.00 | 0.37 | 0.37 | 92 | 999.6 |
| 20260505221739 | 57 | 55 | 0.0 | 0.0 | 0.00 | 0.37 | 0.37 | 92 | 999.6 |
| 20260505221634 | 57 | 55 | 0.0 | 0.0 | 0.00 | 0.37 | 0.37 | 93 | 999.5 |
| 20260505221310 | 57 | 55 | 0.0 | 0.0 | 0.00 | 0.37 | 0.37 | 93 | 999.4 |
| 20260505221208 | 57 | 55 | 0.0 | 0.0 | 0.00 | 0.37 | 0.37 | 92 | 999.4 |
| 20260505221100 | 57 | 55 | 0.0 | 0.0 | 0.00 | 0.37 | 0.37 | 92 | 999.2 |
| 20260505220957 | 57 | 55 | 0.0 | 0.0 | 0.00 | 0.37 | 0.37 | 92 | 999.2 |
| 20260505220850 | 57 | 55 | 0.0 | 0.0 | 0.00 | 0.37 | 0.37 | 92 | 999.2 |
| 20260505220746 | 57 | 55 | 0.0 | 0.0 | 0.00 | 0.37 | 0.37 | 92 | 999.3 |
| 20260505220639 | 57 | 38 | 0.0 | 0.0 | 0.00 | 0.37 | 0.37 | 92 | 999.3 |
| 20260505220533 | 57 | 38 | 0.0 | 0.0 | 0.00 | 0.37 | 0.37 | 92 | 999.3 |
| 20260505220431 | 57 | 296 | 0.0 | 0.0 | 0.00 | 0.37 | 0.37 | 92 | 999.3 |
| 20260505220328 | 57 | 296 | 0.0 | 0.0 | 0.00 | 0.37 | 0.37 | 92 | 999.3 |
| 20260505220226 | 57 | 296 | 0.0 | 0.0 | 0.00 | 0.37 | 0.37 | 92 | 999.3 |
| 20260505220119 | 57 | 296 | 0.0 | 0.0 | 0.00 | 0.37 | 0.37 | 92 | 999.3 |
| 20260505215754 | 57 | 290 | 0.0 | 0.0 | 0.00 | 0.37 | 0.37 | 92 | 999.4 |
| 20260505215651 | 57 | 290 | 0.0 | 0.0 | 0.00 | 0.37 | 0.37 | 92 | 999.3 |
| 20260505215331 | 57 | 63 | 0.0 | 0.0 | 0.00 | 0.37 | 0.37 | 92 | 999.3 |
| 20260505215225 | 57 | 13 | 0.0 | 0.0 | 0.00 | 0.37 | 0.37 | 92 | 999.3 |
| 20260505215123 | 57 | 329 | 0.0 | 0.0 | 0.00 | 0.37 | 0.37 | 92 | 999.4 |
| 20260505215015 | 57 | 329 | 0.0 | 0.0 | 0.00 | 0.37 | 0.37 | 92 | 999.4 |
| 20260505214910 | 57 | 329 | 0.0 | 0.0 | 0.00 | 0.37 | 0.37 | 92 | 999.2 |
| 20260505214805 | 57 | 329 | 0.0 | 0.0 | 0.00 | 0.37 | 0.37 | 92 | 999.2 |
| 20260505214702 | 57 | 329 | 0.0 | 0.0 | 0.00 | 0.37 | 0.37 | 92 | 999.2 |
| 20260505214557 | 57 | 355 | 0.0 | 0.0 | 0.00 | 0.37 | 0.37 | 92 | 999.2 |
| 20260505214455 | 57 | 344 | 0.0 | 0.0 | 0.00 | 0.37 | 0.37 | 92 | 999.1 |
| 20260505214350 | 57 | 336 | 0.0 | 0.0 | 0.00 | 0.37 | 0.37 | 92 | 999.1 |
| 20260505214244 | 57 | 58 | 0.0 | 0.0 | 0.00 | 0.37 | 0.37 | 92 | 998.9 |
| 20260505214138 | 57 | 0 | 0.0 | 0.0 | 0.00 | 0.37 | 0.37 | 92 | 999.1 |
| 20260505214035 | 57 | 0 | 0.0 | 0.0 | 0.00 | 0.37 | 0.37 | 92 | 999.1 |
| 20260505213931 | 57 | 339 | 0.0 | 0.0 | 0.03 | 0.37 | 0.37 | 92 | 999.2 |
| 20260505213823 | 57 | 339 | 0.0 | 0.0 | 0.03 | 0.37 | 0.37 | 92 | 999.3 |
| 20260505213717 | 57 | 339 | 0.0 | 0.0 | 0.03 | 0.37 | 0.37 | 92 | 999.3 |
| 20260505213611 | 57 | 339 | 0.0 | 0.0 | 0.03 | 0.37 | 0.37 | 91 | 999.3 |
| 20260505213508 | 57 | 339 | 0.0 | 0.0 | 0.03 | 0.37 | 0.37 | 91 | 999.3 |
| 20260505213404 | 57 | 346 | 0.0 | 2.0 | 0.03 | 0.37 | 0.37 | 91 | 999.3 |
| 20260505212822 | 57 | 305 | 0.0 | 0.0 | 0.07 | 0.37 | 0.37 | 91 | 999.3 |
| 20260505212457 | 58 | 299 | 0.0 | 0.0 | 0.13 | 0.37 | 0.37 | 91 | 999.3 |
| 20260505211909 | 58 | 240 | 0.0 | 9.0 | 0.00 | 0.35 | 0.35 | 90 | 999.5 |
| 20260505211802 | 58 | 314 | 0.0 | 9.0 | 0.00 | 0.35 | 0.35 | 90 | 999.3 |
| 20260505211654 | 58 | 298 | 0.0 | 0.0 | 0.00 | 0.35 | 0.35 | 90 | 999.2 |
| 20260505211550 | 58 | 263 | 0.0 | 5.0 | 0.00 | 0.35 | 0.35 | 90 | 999.1 |
| 20260505211004 | 59 | 271 | 0.0 | 0.0 | 0.03 | 0.35 | 0.35 | 89 | 998.8 |
| 20260505210901 | 59 | 179 | 0.0 | 0.0 | 0.03 | 0.35 | 0.35 | 89 | 998.8 |
| 20260505210754 | 59 | 263 | 0.0 | 0.0 | 0.04 | 0.35 | 0.35 | 89 | 998.8 |
| 20260505210647 | 59 | 256 | 0.0 | 0.0 | 0.04 | 0.35 | 0.35 | 89 | 998.7 |
| 20260505210543 | 59 | 250 | 0.0 | 0.0 | 0.05 | 0.35 | 0.35 | 88 | 998.5 |
| 20260505210440 | 59 | 201 | 0.0 | 0.0 | 0.06 | 0.35 | 0.35 | 88 | 998.6 |
| 20260505210336 | 59 | 199 | 0.0 | 0.0 | 0.07 | 0.35 | 0.35 | 87 | 998.6 |
| 20260505210230 | 60 | 286 | 0.0 | 0.0 | 0.08 | 0.35 | 0.35 | 87 | 998.4 |
| 20260505210126 | 60 | 286 | 1.0 | 0.0 | 0.11 | 0.35 | 0.35 | 86 | 998.4 |
| 20260505210019 | 60 | 318 | 2.0 | 0.0 | 0.14 | 0.35 | 0.35 | 85 | 998.4 |
| 20260505205916 | 60 | 19 | 2.0 | 0.0 | 0.17 | 0.35 | 0.35 | 84 | 998.4 |
| 20260505205810 | 61 | 316 | 2.0 | 0.0 | 0.17 | 0.34 | 0.35 | 84 | 998.4 |
| 20260505205706 | 61 | 244 | 3.0 | 24.0 | 0.18 | 0.34 | 0.34 | 83 | 998.3 |
| 20260505205559 | 62 | 215 | 3.0 | 24.0 | 0.29 | 0.34 | 0.34 | 81 | 998.3 |
| 20260505205452 | 63 | 296 | 3.0 | 24.0 | 1.94 | 0.31 | 0.34 | 80 | 998.4 |
| 20260505205345 | 64 | 260 | 3.0 | 24.0 | 2.66 | 0.28 | 0.32 | 78 | 998.6 |
| 20260505205237 | 65 | 274 | 3.0 | 24.0 | 2.59 | 0.23 | 0.28 | 75 | 998.5 |
| 20260505205134 | 66 | 300 | 2.0 | 15.0 | 0.00 | 0.22 | 0.23 | 73 | 998.4 |
| 20260505205028 | 66 | 253 | 1.0 | 14.0 | 0.00 | 0.22 | 0.22 | 73 | 998.3 |
| 20260505204921 | 66 | 259 | 1.0 | 12.0 | 0.00 | 0.22 | 0.22 | 73 | 997.9 |
| 20260505204819 | 66 | 284 | 1.0 | 12.0 | 0.00 | 0.22 | 0.22 | 73 | 997.5 |
| 20260505204714 | 66 | 309 | 1.0 | 12.0 | 0.00 | 0.22 | 0.22 | 73 | 997.3 |
| 20260505204612 | 66 | 244 | 1.0 | 12.0 | 0.00 | 0.22 | 0.22 | 73 | 996.9 |
| 20260505204507 | 66 | 277 | 1.0 | 12.0 | 0.00 | 0.22 | 0.22 | 73 | 996.8 |
| 20260505204403 | 66 | 175 | 1.0 | 12.0 | 0.00 | 0.22 | 0.22 | 73 | 996.8 |
| 20260505204257 | 66 | 235 | 0.0 | 10.0 | 0.00 | 0.22 | 0.22 | 73 | 996.9 |
| 20260505203933 | 66 | 267 | 1.0 | 10.0 | 0.00 | 0.22 | 0.22 | 74 | 996.8 |
| 20260505203352 | 66 | 276 | 1.0 | 0.0 | 0.00 | 0.22 | 0.22 | 75 | 997.0 |
| 20260505203245 | 66 | 225 | 2.0 | 15.0 | 0.00 | 0.22 | 0.22 | 75 | 997.1 |
| 20260505203138 | 66 | 280 | 3.0 | 15.0 | 0.00 | 0.22 | 0.22 | 75 | 997.1 |
| 20260505203032 | 66 | 227 | 2.0 | 15.0 | 0.00 | 0.22 | 0.22 | 76 | 997.2 |
| 20260505202929 | 65 | 210 | 2.0 | 15.0 | 0.00 | 0.22 | 0.22 | 76 | 997.2 |
| 20260505202600 | 65 | 226 | 2.0 | 16.0 | 0.00 | 0.22 | 0.22 | 76 | 997.0 |
| 20260505202455 | 65 | 226 | 2.0 | 16.0 | 0.00 | 0.22 | 0.22 | 76 | 996.9 |
| 20260505202134 | 65 | 177 | 0.0 | 14.0 | 0.00 | 0.22 | 0.22 | 78 | 996.9 |
| 20260505202029 | 65 | 241 | 1.0 | 12.0 | 0.00 | 0.22 | 0.22 | 78 | 997.0 |
| 20260505201927 | 65 | 157 | 1.0 | 12.0 | 0.00 | 0.22 | 0.22 | 79 | 997.1 |
| 20260505201824 | 65 | 242 | 1.0 | 12.0 | 0.00 | 0.22 | 0.22 | 79 | 997.1 |
| 20260505201719 | 65 | 205 | 1.0 | 12.0 | 0.00 | 0.22 | 0.22 | 79 | 997.1 |
| 20260505201615 | 65 | 242 | 1.0 | 12.0 | 0.00 | 0.22 | 0.22 | 79 | 997.0 |
| 20260505200807 | 65 | 227 | 0.0 | 9.0 | 0.00 | 0.22 | 0.22 | 81 | 997.4 |
| 20260505200705 | 65 | 220 | 0.0 | 9.0 | 0.00 | 0.22 | 0.22 | 81 | 997.4 |
| 20260505200559 | 65 | 196 | 0.0 | 9.0 | 0.00 | 0.22 | 0.22 | 82 | 997.3 |
| 20260505200457 | 65 | 208 | 0.0 | 1.0 | 0.00 | 0.22 | 0.22 | 83 | 997.4 |
| 20260505200352 | 65 | 313 | 0.0 | 0.0 | 0.00 | 0.22 | 0.22 | 82 | 997.4 |
| 20260505200026 | 65 | 202 | 0.0 | 11.0 | 0.00 | 0.22 | 0.22 | 83 | 997.3 |
| 20260505195922 | 65 | 194 | 0.0 | 5.0 | 0.00 | 0.22 | 0.22 | 84 | 997.2 |
| 20260505195816 | 65 | 269 | 0.0 | 5.0 | 0.00 | 0.22 | 0.22 | 84 | 997.2 |
| 20260505195446 | 65 | 305 | 0.0 | 0.0 | 0.00 | 0.22 | 0.22 | 84 | 997.4 |
| 20260505195339 | 65 | 218 | 0.0 | 0.0 | 0.00 | 0.22 | 0.22 | 84 | 997.4 |
| 20260505195233 | 65 | 215 | 0.0 | 11.0 | 0.00 | 0.22 | 0.22 | 84 | 997.5 |
| 20260505195131 | 64 | 232 | 0.0 | 11.0 | 0.00 | 0.22 | 0.22 | 84 | 997.6 |
| 20260505195027 | 64 | 229 | 0.0 | 0.0 | 0.00 | 0.22 | 0.22 | 84 | 997.6 |
| 20260505194924 | 64 | 213 | 0.0 | 0.0 | 0.00 | 0.22 | 0.22 | 84 | 997.5 |
| 20260505194559 | 64 | 289 | 0.0 | 8.0 | 0.00 | 0.22 | 0.22 | 85 | 997.7 |
| 20260505194235 | 64 | 313 | 0.0 | 8.0 | 0.00 | 0.22 | 0.22 | 85 | 997.8 |
| 20260505194131 | 64 | 222 | 0.0 | 8.0 | 0.00 | 0.22 | 0.22 | 85 | 997.8 |
| 20260505194025 | 64 | 213 | 0.0 | 8.0 | 0.00 | 0.22 | 0.22 | 85 | 997.9 |
| 20260505193922 | 64 | 234 | 0.0 | 0.0 | 0.00 | 0.22 | 0.22 | 86 | 997.9 |
| 20260505193559 | 64 | 220 | 0.0 | 0.0 | 0.00 | 0.22 | 0.22 | 88 | 997.9 |
| 20260505193456 | 64 | 193 | 0.0 | 0.0 | 0.00 | 0.22 | 0.22 | 87 | 997.9 |
| 20260505193349 | 64 | 219 | 0.0 | 0.0 | 0.00 | 0.22 | 0.22 | 87 | 997.8 |
| 20260505193243 | 64 | 174 | 0.0 | 0.0 | 0.00 | 0.22 | 0.22 | 87 | 997.9 |
| 20260505192918 | 64 | 211 | 0.0 | 7.0 | 0.00 | 0.22 | 0.22 | 88 | 997.9 |
| 20260505192812 | 64 | 198 | 0.0 | 7.0 | 0.00 | 0.22 | 0.22 | 88 | 998.0 |
| 20260505192707 | 63 | 258 | 0.0 | 7.0 | 0.00 | 0.22 | 0.22 | 89 | 997.9 |
| 20260505192602 | 63 | 198 | 0.0 | 6.0 | 0.00 | 0.22 | 0.22 | 89 | 997.9 |
| 20260505192456 | 63 | 233 | 0.0 | 5.0 | 0.00 | 0.22 | 0.22 | 89 | 998.0 |
| 20260505192353 | 63 | 329 | 0.0 | 0.0 | 0.00 | 0.22 | 0.22 | 89 | 997.9 |
| 20260505191812 | 62 | 257 | 0.0 | 0.0 | 0.00 | 0.22 | 0.22 | 91 | 998.1 |
| 20260505191705 | 62 | 161 | 0.0 | 0.0 | 0.00 | 0.22 | 0.22 | 91 | 998.2 |
| 20260505191342 | 62 | 177 | 0.0 | 1.0 | 0.00 | 0.22 | 0.22 | 91 | 998.3 |
| 20260505191240 | 61 | 198 | 0.0 | 4.0 | 0.00 | 0.22 | 0.22 | 91 | 998.4 |
| 20260505190655 | 61 | 207 | 0.0 | 3.0 | 0.00 | 0.22 | 0.22 | 92 | 998.5 |
| 20260505190550 | 61 | 183 | 0.0 | 0.0 | 0.00 | 0.22 | 0.22 | 92 | 998.4 |
| 20260505190448 | 61 | 263 | 0.0 | 0.0 | 0.00 | 0.22 | 0.22 | 93 | 998.4 |
| 20260505190122 | 60 | 134 | 0.0 | 5.0 | 0.00 | 0.22 | 0.22 | 93 | 998.4 |
| 20260505190018 | 60 | 140 | 0.0 | 5.0 | 0.00 | 0.22 | 0.22 | 93 | 998.5 |
| 20260505185651 | 60 | 237 | 0.0 | 0.0 | 0.00 | 0.22 | 0.22 | 93 | 998.5 |
| 20260505185547 | 60 | 284 | 0.0 | 0.0 | 0.00 | 0.22 | 0.22 | 93 | 998.5 |
| 20260505185441 | 60 | 297 | 0.0 | 4.0 | 0.00 | 0.22 | 0.22 | 93 | 998.5 |
| 20260505185334 | 60 | 188 | 0.0 | 4.0 | 0.00 | 0.22 | 0.22 | 93 | 998.5 |
| 20260505185227 | 60 | 218 | 0.0 | 2.0 | 0.00 | 0.22 | 0.22 | 93 | 998.5 |
| 20260505185120 | 60 | 228 | 0.0 | 2.0 | 0.00 | 0.22 | 0.22 | 93 | 998.5 |
| 20260505185018 | 59 | 193 | 0.0 | 1.0 | 0.00 | 0.22 | 0.22 | 93 | 998.6 |
| 20260505184432 | 59 | 200 | 0.0 | 0.0 | 0.00 | 0.22 | 0.22 | 93 | 998.7 |
| 20260505184104 | 59 | 205 | 0.0 | 0.0 | 0.00 | 0.22 | 0.22 | 93 | 998.8 |
| 20260505183740 | 59 | 186 | 0.0 | 0.0 | 0.00 | 0.22 | 0.22 | 93 | 998.8 |
| 20260505183637 | 59 | 186 | 0.0 | 0.0 | 0.00 | 0.22 | 0.22 | 93 | 998.8 |
| 20260505183311 | 59 | 209 | 0.0 | 0.0 | 0.00 | 0.22 | 0.22 | 94 | 998.9 |
| 20260505182945 | 59 | 100 | 0.0 | 0.0 | 0.00 | 0.22 | 0.22 | 93 | 998.9 |
| 20260505182842 | 59 | 100 | 0.0 | 0.0 | 0.00 | 0.22 | 0.22 | 93 | 998.9 |
| 20260505182739 | 58 | 100 | 0.0 | 0.0 | 0.00 | 0.22 | 0.22 | 93 | 998.9 |
| 20260505182633 | 58 | 100 | 0.0 | 0.0 | 0.00 | 0.22 | 0.22 | 93 | 998.9 |
| 20260505182527 | 59 | 100 | 0.0 | 0.0 | 0.00 | 0.22 | 0.22 | 93 | 999.0 |
| 20260505182202 | 58 | 159 | 0.0 | 0.0 | 0.00 | 0.22 | 0.22 | 94 | 999.0 |
| 20260505182057 | 58 | 159 | 0.0 | 0.0 | 0.00 | 0.22 | 0.22 | 94 | 999.1 |
| 20260505181950 | 58 | 159 | 0.0 | 0.0 | 0.00 | 0.22 | 0.22 | 94 | 999.1 |
| 20260505181623 | 58 | 159 | 0.0 | 0.0 | 0.00 | 0.22 | 0.22 | 94 | 999.1 |
| 20260505181521 | 58 | 159 | 0.0 | 0.0 | 0.00 | 0.22 | 0.22 | 94 | 999.1 |
| 20260505181153 | 57 | 159 | 0.0 | 0.0 | 0.00 | 0.22 | 0.22 | 93 | 999.0 |
| 20260505181047 | 57 | 159 | 0.0 | 0.0 | 0.00 | 0.22 | 0.22 | 93 | 999.1 |
| 20260505180942 | 57 | 159 | 0.0 | 0.0 | 0.00 | 0.22 | 0.22 | 93 | 999.1 |
| 20260505180622 | 57 | 159 | 0.0 | 0.0 | 0.00 | 0.22 | 0.22 | 93 | 999.2 |
| 20260505180515 | 57 | 159 | 0.0 | 0.0 | 0.00 | 0.22 | 0.22 | 93 | 999.2 |
| 20260505180410 | 57 | 159 | 0.0 | 0.0 | 0.00 | 0.22 | 0.22 | 93 | 999.2 |
| 20260505180045 | 57 | 159 | 0.0 | 0.0 | 0.00 | 0.22 | 0.22 | 93 | 999.3 |
| 20260505175942 | 57 | 159 | 0.0 | 0.0 | 0.00 | 0.22 | 0.22 | 93 | 999.3 |
| 20260505175838 | 57 | 159 | 0.0 | 0.0 | 0.00 | 0.22 | 0.22 | 93 | 999.3 |
| 20260505175735 | 57 | 159 | 0.0 | 0.0 | 0.03 | 0.22 | 0.22 | 93 | 999.3 |
| 20260505175631 | 57 | 159 | 0.0 | 0.0 | 0.03 | 0.22 | 0.22 | 93 | 999.3 |
| 20260505175529 | 57 | 159 | 0.0 | 0.0 | 0.03 | 0.22 | 0.22 | 93 | 999.3 |
| 20260505175421 | 57 | 159 | 0.0 | 0.0 | 0.03 | 0.22 | 0.22 | 93 | 999.3 |
| 20260505175318 | 57 | 157 | 0.0 | 0.0 | 0.03 | 0.22 | 0.22 | 93 | 999.2 |
| 20260505175213 | 57 | 157 | 0.0 | 0.0 | 0.03 | 0.22 | 0.22 | 93 | 999.2 |
| 20260505175108 | 57 | 157 | 0.0 | 0.0 | 0.04 | 0.22 | 0.22 | 93 | 999.3 |
| 20260505175005 | 57 | 150 | 0.0 | 0.0 | 0.05 | 0.22 | 0.22 | 93 | 999.4 |
| 20260505174857 | 57 | 180 | 0.0 | 0.0 | 0.05 | 0.22 | 0.22 | 93 | 999.4 |
| 20260505174755 | 57 | 180 | 0.0 | 0.0 | 0.07 | 0.22 | 0.22 | 93 | 999.4 |
| 20260505174433 | 57 | 169 | 0.0 | 0.0 | 0.09 | 0.22 | 0.22 | 93 | 999.5 |
| 20260505174106 | 56 | 169 | 0.0 | 0.0 | 0.09 | 0.22 | 0.22 | 93 | 999.4 |
| 20260505174002 | 56 | 169 | 0.0 | 0.0 | 0.12 | 0.22 | 0.22 | 93 | 999.4 |
| 20260505173854 | 56 | 169 | 0.0 | 0.0 | 0.13 | 0.22 | 0.22 | 93 | 999.4 |
| 20260505173750 | 56 | 169 | 0.0 | 0.0 | 0.13 | 0.22 | 0.22 | 93 | 999.5 |
| 20260505173646 | 56 | 169 | 0.0 | 0.0 | 0.13 | 0.21 | 0.22 | 93 | 999.5 |
| 20260505173542 | 56 | 169 | 0.0 | 0.0 | 0.14 | 0.21 | 0.21 | 93 | 999.6 |
| 20260505173435 | 56 | 169 | 0.0 | 0.0 | 0.22 | 0.21 | 0.21 | 93 | 999.6 |
| 20260505173332 | 56 | 169 | 0.0 | 0.0 | 0.29 | 0.20 | 0.21 | 92 | 999.6 |
| 20260505173228 | 56 | 169 | 0.0 | 0.0 | 0.29 | 0.19 | 0.20 | 92 | 999.6 |
| 20260505173120 | 57 | 169 | 0.0 | 0.0 | 0.29 | 0.19 | 0.20 | 92 | 999.5 |
| 20260505173015 | 57 | 169 | 0.0 | 0.0 | 0.03 | 0.18 | 0.19 | 92 | 999.5 |
| 20260505172432 | 57 | 169 | 0.0 | 0.0 | 0.04 | 0.18 | 0.18 | 92 | 999.5 |
| 20260505172326 | 57 | 169 | 0.0 | 0.0 | 0.05 | 0.18 | 0.18 | 92 | 999.5 |
| 20260505171743 | 57 | 168 | 0.0 | 0.0 | 0.11 | 0.18 | 0.18 | 92 | 999.4 |
| 20260505171640 | 57 | 168 | 0.0 | 0.0 | 0.11 | 0.18 | 0.18 | 92 | 999.5 |
| 20260505171537 | 57 | 161 | 0.0 | 0.0 | 0.11 | 0.18 | 0.18 | 92 | 999.5 |
| 20260505171434 | 57 | 161 | 0.0 | 0.0 | 0.11 | 0.18 | 0.18 | 92 | 999.5 |
| 20260505171332 | 57 | 161 | 0.0 | 0.0 | 0.15 | 0.18 | 0.18 | 92 | 999.5 |
| 20260505171229 | 57 | 161 | 0.0 | 0.0 | 0.19 | 0.17 | 0.18 | 91 | 999.6 |
| 20260505170907 | 57 | 221 | 0.0 | 0.0 | 0.42 | 0.15 | 0.17 | 91 | 999.7 |
| 20260505170802 | 57 | 228 | 0.0 | 0.0 | 0.42 | 0.15 | 0.16 | 91 | 999.8 |
| 20260505170657 | 57 | 228 | 0.0 | 0.0 | 0.33 | 0.14 | 0.15 | 91 | 999.8 |
| 20260505170555 | 57 | 205 | 0.0 | 0.0 | 0.22 | 0.14 | 0.14 | 91 | 999.8 |
| 20260505170451 | 57 | 219 | 0.0 | 0.0 | 0.22 | 0.14 | 0.14 | 91 | 999.8 |
| 20260505170346 | 57 | 258 | 0.0 | 0.0 | 0.40 | 0.13 | 0.14 | 91 | 999.7 |
| 20260505170242 | 57 | 201 | 0.0 | 0.0 | 0.22 | 0.12 | 0.13 | 91 | 999.6 |
| 20260505165921 | 57 | 201 | 0.0 | 0.0 | 0.22 | 0.11 | 0.11 | 90 | 999.8 |
| 20260505165816 | 57 | 217 | 0.0 | 0.0 | 0.29 | 0.11 | 0.11 | 90 | 999.8 |
| 20260505165454 | 57 | 238 | 0.0 | 0.0 | 0.81 | 0.07 | 0.09 | 90 | 999.9 |
| 20260505165351 | 57 | 244 | 0.0 | 0.0 | 0.88 | 0.06 | 0.07 | 90 | 1000.0 |
| 20260505165246 | 57 | 246 | 0.0 | 0.0 | 0.09 | 0.06 | 0.06 | 90 | 1000.1 |
| 20260505164923 | 57 | 268 | 0.0 | 0.0 | 0.11 | 0.05 | 0.06 | 89 | 999.8 |
| 20260505164816 | 58 | 250 | 0.0 | 0.0 | 0.11 | 0.05 | 0.06 | 89 | 999.7 |
| 20260505164714 | 58 | 180 | 0.0 | 0.0 | 0.14 | 0.05 | 0.05 | 88 | 999.7 |
| 20260505164611 | 58 | 244 | 0.0 | 0.0 | 0.16 | 0.05 | 0.05 | 88 | 999.7 |
| 20260505164506 | 58 | 215 | 0.0 | 0.0 | 0.16 | 0.04 | 0.05 | 88 | 999.8 |
| 20260505164401 | 58 | 209 | 0.0 | 6.0 | 0.16 | 0.04 | 0.04 | 88 | 999.9 |
| 20260505164259 | 58 | 213 | 0.0 | 6.0 | 0.14 | 0.04 | 0.04 | 87 | 999.9 |
| 20260505164156 | 58 | 231 | 0.0 | 0.0 | 0.14 | 0.03 | 0.04 | 87 | 999.8 |
| 20260505164053 | 58 | 237 | 0.0 | 0.0 | 0.15 | 0.03 | 0.03 | 87 | 999.9 |
| 20260505163728 | 59 | 214 | 0.0 | 0.0 | 0.26 | 0.02 | 0.03 | 86 | 999.8 |
| 20260505163623 | 59 | 214 | 0.0 | 0.0 | 0.26 | 0.02 | 0.03 | 85 | 999.8 |
| 20260505163520 | 59 | 267 | 0.0 | 0.0 | 0.12 | 0.01 | 0.02 | 85 | 999.7 |
| 20260505163416 | 59 | 205 | 0.0 | 10.0 | 0.12 | 0.01 | 0.02 | 84 | 999.7 |
| 20260505163311 | 59 | 252 | 0.0 | 10.0 | 0.08 | 0.01 | 0.01 | 84 | 999.8 |
| 20260505163209 | 59 | 257 | 0.0 | 9.0 | 0.08 | 0.01 | 0.01 | 83 | 999.9 |
| 20260505163107 | 60 | 214 | 0.0 | 9.0 | 0.08 | 0.00 | 0.01 | 83 | 999.9 |
| 20260505163000 | 60 | 205 | 0.0 | 9.0 | 0.00 | 0.00 | 0.00 | 82 | 999.8 |
| 20260505162855 | 60 | 204 | 0.0 | 9.0 | 0.00 | 0.00 | 0.00 | 82 | 999.8 |
| 20260505162753 | 60 | 212 | 0.0 | 9.0 | 0.00 | 0.00 | 0.00 | 81 | 999.7 |
| 20260505162650 | 60 | 263 | 0.0 | 2.0 | 0.00 | 0.00 | 0.00 | 81 | 999.7 |
| 20260505162545 | 61 | 226 | 0.0 | 2.0 | 0.00 | 0.00 | 0.00 | 81 | 999.7 |
| 20260505162440 | 61 | 209 | 0.0 | 0.0 | 0.00 | 0.00 | 0.00 | 80 | 999.7 |
| 20260505162334 | 61 | 224 | 0.0 | 9.0 | 0.00 | 0.00 | 0.00 | 79 | 999.8 |
| 20260505162229 | 61 | 221 | 0.0 | 9.0 | 0.00 | 0.00 | 0.00 | 79 | 999.8 |
| 20260505162122 | 61 | 182 | 0.0 | 7.0 | 0.00 | 0.00 | 0.00 | 79 | 999.8 |
| 20260505162017 | 61 | 220 | 0.0 | 8.0 | 0.00 | 0.00 | 0.00 | 77 | 999.8 |
| 20260505161914 | 61 | 217 | 0.0 | 8.0 | 0.00 | 0.00 | 0.00 | 77 | 999.8 |
| 20260505161812 | 62 | 194 | 0.0 | 0.0 | 0.00 | 0.00 | 0.00 | 77 | 999.8 |
| 20260505161706 | 62 | 171 | 0.0 | 8.0 | 0.00 | 0.00 | 0.00 | 76 | 999.9 |
| 20260505161600 | 62 | 222 | 0.0 | 8.0 | 0.00 | 0.00 | 0.00 | 76 | 999.9 |
| 20260505161456 | 62 | 180 | 0.0 | 0.0 | 0.00 | 0.00 | 0.00 | 75 | 999.9 |
| 20260505161353 | 62 | 198 | 0.0 | 1.0 | 0.00 | 0.00 | 0.00 | 75 | 999.9 |
| 20260505161026 | 62 | 213 | 0.0 | 9.0 | 0.00 | 0.00 | 0.00 | 74 | 999.9 |
| 20260505160920 | 62 | 205 | 0.0 | 9.0 | 0.00 | 0.00 | 0.00 | 74 | 1000.0 |
| 20260505160814 | 62 | 196 | 0.0 | 9.0 | 0.00 | 0.00 | 0.00 | 73 | 999.9 |
| 20260505160710 | 63 | 214 | 0.0 | 9.0 | 0.00 | 0.00 | 0.00 | 73 | 1000.0 |
| 20260505160604 | 63 | 221 | 0.0 | 9.0 | 0.00 | 0.00 | 0.00 | 73 | 1000.0 |
| 20260505160501 | 63 | 211 | 0.0 | 9.0 | 0.00 | 0.00 | 0.00 | 73 | 1000.0 |
| 20260505160140 | 63 | 232 | 0.0 | 0.0 | 0.00 | 0.00 | 0.00 | 72 | 1000.0 |
| 20260505153332 | 65 | 252 | 0.0 | 5.0 | 0.00 | 0.00 | 0.00 | 60 | 999.8 |
| 20260505153224 | 65 | 288 | 0.0 | 0.0 | 0.00 | 0.00 | 0.00 | 60 | 999.8 |
| 20260505153117 | 65 | 155 | 0.0 | 0.0 | 0.00 | 0.00 | 0.00 | 60 | 999.8 |
| 20260505153013 | 65 | 218 | 0.0 | 0.0 | 0.00 | 0.00 | 0.00 | 60 | 999.8 |
| 20260505152908 | 65 | 192 | 0.0 | 0.0 | 0.00 | 0.00 | 0.00 | 60 | 999.7 |
| 20260505152803 | 65 | 248 | 0.0 | 1.0 | 0.00 | 0.00 | 0.00 | 60 | 999.8 |
| 20260505152655 | 65 | 217 | 0.0 | 1.0 | 0.00 | 0.00 | 0.00 | 60 | 999.8 |
| 20260505152550 | 65 | 222 | 0.0 | 0.0 | 0.00 | 0.00 | 0.00 | 60 | 999.8 |
| 20260505152447 | 65 | 209 | 0.0 | 0.0 | 0.00 | 0.00 | 0.00 | 60 | 999.8 |
| 20260505152344 | 65 | 189 | 0.0 | 0.0 | 0.00 | 0.00 | 0.00 | 61 | 999.8 |
| 20260505152240 | 65 | 202 | 0.0 | 0.0 | 0.00 | 0.00 | 0.00 | 61 | 999.8 |
| 20260505152135 | 64 | 213 | 0.0 | 0.0 | 0.00 | 0.00 | 0.00 | 61 | 999.8 |
| 20260505152033 | 64 | 183 | 0.0 | 0.0 | 0.00 | 0.00 | 0.00 | 62 | 999.8 |
| 20260505151926 | 64 | 140 | 0.0 | 10.0 | 0.00 | 0.00 | 0.00 | 61 | 999.8 |
| 20260505151823 | 64 | 222 | 0.0 | 10.0 | 0.00 | 0.00 | 0.00 | 61 | 999.8 |
| 20260505151717 | 64 | 163 | 0.0 | 0.0 | 0.00 | 0.00 | 0.00 | 61 | 999.8 |
| 20260505151610 | 64 | 227 | 0.0 | 0.0 | 0.00 | 0.00 | 0.00 | 62 | 999.9 |
| 20260505151506 | 64 | 235 | 0.0 | 0.0 | 0.00 | 0.00 | 0.00 | 62 | 1000.0 |
| 20260505151403 | 64 | 223 | 0.0 | 7.0 | 0.00 | 0.00 | 0.00 | 61 | 1000.0 |
| 20260505151259 | 64 | 295 | 0.0 | 7.0 | 0.00 | 0.00 | 0.00 | 61 | 1000.1 |
| 20260505151153 | 63 | 165 | 0.0 | 7.0 | 0.00 | 0.00 | 0.00 | 62 | 1000.1 |
| 20260505150350 | 63 | 278 | 0.0 | 9.0 | 0.00 | 0.01 | 0.00 | 61 | 1000.3 |
| 20260505150243 | 63 | 186 | 0.0 | 9.0 | 0.00 | 0.01 | 0.00 | 62 | 1000.3 |
| 20260505140542 | 62 | 207 | 0.0 | 0.0 | 0.00 | 0.03 | 0.00 | 60 | 1000.6 |
| 20260505140440 | 62 | 199 | 0.0 | 0.0 | 0.00 | 0.03 | 0.00 | 60 | 1000.6 |
| 20260505140334 | 62 | 242 | 0.0 | 0.0 | 0.00 | 0.03 | 0.00 | 60 | 1000.6 |
| 20260505140229 | 61 | 243 | 0.0 | 0.0 | 0.00 | 0.03 | 0.00 | 60 | 1000.6 |
| 20260505124759 | 57 | 22 | 0.0 | 0.0 | 0.00 | 0.03 | 0.00 | 68 | 1001.0 |
| 20260505124656 | 57 | 22 | 0.0 | 0.0 | 0.00 | 0.03 | 0.00 | 70 | 1001.0 |
| 20260505124549 | 57 | 22 | 0.0 | 0.0 | 0.00 | 0.03 | 0.00 | 70 | 1001.1 |
| 20260505124442 | 57 | 22 | 0.0 | 0.0 | 0.00 | 0.03 | 0.00 | 70 | 1001.1 |
| 20260505124338 | 57 | 22 | 0.0 | 0.0 | 0.00 | 0.03 | 0.00 | 71 | 1001.1 |
| 20260505124233 | 56 | 22 | 0.0 | 0.0 | 0.00 | 0.03 | 0.00 | 71 | 1001.1 |
| 20260505124127 | 56 | 22 | 0.0 | 0.0 | 0.00 | 0.03 | 0.00 | 71 | 1001.2 |
| 20260505124022 | 56 | 22 | 0.0 | 0.0 | 0.00 | 0.03 | 0.00 | 72 | 1001.2 |
| 20260505123915 | 56 | 22 | 0.0 | 0.0 | 0.00 | 0.03 | 0.00 | 72 | 1001.1 |
| 20260505123549 | 56 | 22 | 0.0 | 0.0 | 0.00 | 0.03 | 0.00 | 73 | 1001.0 |
| 20260505123443 | 56 | 22 | 0.0 | 0.0 | 0.00 | 0.03 | 0.00 | 73 | 1001.0 |
| 20260505123337 | 56 | 22 | 0.0 | 0.0 | 0.00 | 0.03 | 0.00 | 74 | 1001.1 |
| 20260505123232 | 56 | 22 | 0.0 | 0.0 | 0.00 | 0.03 | 0.00 | 74 | 1001.1 |
| 20260505123125 | 56 | 22 | 0.0 | 0.0 | 0.00 | 0.03 | 0.00 | 74 | 1001.1 |
| 20260505123022 | 56 | 22 | 0.0 | 0.0 | 0.00 | 0.03 | 0.00 | 74 | 1001.1 |
| 20260505122914 | 55 | 22 | 0.0 | 0.0 | 0.00 | 0.03 | 0.00 | 74 | 1001.1 |
| 20260505122554 | 55 | 22 | 0.0 | 0.0 | 0.00 | 0.03 | 0.00 | 76 | 1001.2 |
| 20260505122450 | 55 | 22 | 0.0 | 0.0 | 0.00 | 0.03 | 0.00 | 77 | 1001.2 |
| 20260505122348 | 55 | 22 | 0.0 | 0.0 | 0.00 | 0.03 | 0.00 | 77 | 1001.3 |
| 20260505122243 | 55 | 22 | 0.0 | 0.0 | 0.00 | 0.03 | 0.00 | 77 | 1001.3 |
| 20260505122141 | 55 | 22 | 0.0 | 0.0 | 0.00 | 0.03 | 0.00 | 77 | 1001.3 |
| 20260505121817 | 54 | 22 | 0.0 | 0.0 | 0.00 | 0.03 | 0.00 | 78 | 1001.2 |
| 20260505121711 | 54 | 22 | 0.0 | 0.0 | 0.00 | 0.03 | 0.00 | 78 | 1001.2 |
| 20260505121607 | 54 | 22 | 0.0 | 0.0 | 0.00 | 0.03 | 0.00 | 79 | 1001.2 |
| 20260505121502 | 54 | 22 | 0.0 | 0.0 | 0.00 | 0.03 | 0.00 | 79 | 1001.3 |
| 20260505121359 | 54 | 22 | 0.0 | 0.0 | 0.00 | 0.03 | 0.00 | 80 | 1001.3 |
| 20260505121255 | 54 | 22 | 0.0 | 0.0 | 0.00 | 0.03 | 0.00 | 80 | 1001.3 |
| 20260505121150 | 53 | 22 | 0.0 | 0.0 | 0.00 | 0.03 | 0.00 | 80 | 1001.3 |
| 20260505121048 | 53 | 22 | 0.0 | 0.0 | 0.00 | 0.03 | 0.00 | 80 | 1001.3 |
| 20260505120943 | 53 | 22 | 0.0 | 0.0 | 0.00 | 0.03 | 0.00 | 81 | 1001.3 |
| 20260505120837 | 53 | 22 | 0.0 | 0.0 | 0.00 | 0.03 | 0.00 | 81 | 1001.3 |
| 20260505120511 | 53 | 22 | 0.0 | 0.0 | 0.00 | 0.03 | 0.00 | 82 | 1001.4 |
| 20260505120142 | 52 | 22 | 0.0 | 0.0 | 0.00 | 0.03 | 0.00 | 82 | 1001.5 |
| 20260505120035 | 52 | 22 | 0.0 | 2.0 | 0.00 | 0.03 | 0.00 | 83 | 1001.5 |
| 20260505115930 | 52 | 22 | 0.0 | 2.0 | 0.00 | 0.03 | 0.00 | 84 | 1001.5 |
| 20260505115826 | 52 | 22 | 0.0 | 0.0 | 0.00 | 0.03 | 0.00 | 84 | 1001.6 |
| 20260505115719 | 52 | 21 | 0.0 | 0.0 | 0.00 | 0.03 | 0.00 | 84 | 1001.5 |
| 20260505115613 | 52 | 21 | 0.0 | 0.0 | 0.00 | 0.03 | 0.00 | 85 | 1001.5 |
| 20260505115244 | 51 | 21 | 0.0 | 0.0 | 0.00 | 0.03 | 0.00 | 86 | 1001.6 |
| 20260505115140 | 51 | 21 | 0.0 | 0.0 | 0.00 | 0.03 | 0.00 | 86 | 1001.6 |
| 20260505115032 | 51 | 21 | 0.0 | 0.0 | 0.00 | 0.03 | 0.00 | 86 | 1001.6 |
| 20260505114927 | 51 | 21 | 0.0 | 0.0 | 0.00 | 0.03 | 0.00 | 87 | 1001.6 |
| 20260505114821 | 50 | 21 | 0.0 | 0.0 | 0.00 | 0.03 | 0.00 | 87 | 1001.7 |
| 20260505114714 | 50 | 21 | 0.0 | 0.0 | 0.00 | 0.03 | 0.00 | 88 | 1001.6 |
| 20260505114610 | 50 | 21 | 0.0 | 0.0 | 0.00 | 0.03 | 0.00 | 88 | 1001.7 |
| 20260505114507 | 50 | 21 | 0.0 | 0.0 | 0.00 | 0.03 | 0.00 | 88 | 1001.7 |
| 20260505114145 | 50 | 21 | 0.0 | 0.0 | 0.00 | 0.03 | 0.00 | 90 | 1001.7 |
| 20260505114041 | 49 | 21 | 0.0 | 0.0 | 0.00 | 0.03 | 0.00 | 90 | 1001.7 |
| 20260505113936 | 49 | 21 | 0.0 | 0.0 | 0.00 | 0.03 | 0.00 | 90 | 1001.6 |
| 20260505113610 | 49 | 21 | 0.0 | 0.0 | 0.00 | 0.03 | 0.00 | 92 | 1001.6 |
| 20260505113507 | 48 | 21 | 0.0 | 0.0 | 0.00 | 0.03 | 0.00 | 92 | 1001.6 |
| 20260505113400 | 48 | 21 | 0.0 | 0.0 | 0.00 | 0.03 | 0.00 | 93 | 1001.6 |
| 20260505112559 | 46 | 21 | 0.0 | 0.0 | 0.00 | 0.03 | 0.00 | 94 | 1001.7 |
| 20260505112454 | 46 | 21 | 0.0 | 0.0 | 0.00 | 0.03 | 0.00 | 94 | 1001.7 |
| 20260505112130 | 45 | 21 | 0.0 | 0.0 | 0.00 | 0.03 | 0.00 | 94 | 1001.7 |
| 20260505111809 | 45 | 21 | 0.0 | 0.0 | 0.00 | 0.03 | 0.00 | 95 | 1001.8 |
| 20260505111702 | 44 | 21 | 0.0 | 0.0 | 0.00 | 0.03 | 0.00 | 95 | 1001.8 |
| 20260505111558 | 44 | 21 | 0.0 | 0.0 | 0.00 | 0.03 | 0.00 | 95 | 1001.8 |
| 20260505111453 | 44 | 21 | 0.0 | 0.0 | 0.00 | 0.03 | 0.00 | 95 | 1001.8 |
| 20260505111347 | 44 | 21 | 0.0 | 0.0 | 0.00 | 0.03 | 0.00 | 95 | 1001.8 |
| 20260505111242 | 44 | 21 | 0.0 | 0.0 | 0.00 | 0.03 | 0.00 | 95 | 1001.7 |
| 20260505111139 | 43 | 21 | 0.0 | 0.0 | 0.00 | 0.03 | 0.00 | 95 | 1001.8 |
| 20260505111035 | 43 | 21 | 0.0 | 0.0 | 0.00 | 0.03 | 0.00 | 95 | 1001.8 |
| 20260505110715 | 42 | 25 | 0.0 | 0.0 | 0.00 | 0.03 | 0.00 | 95 | 1001.7 |
| 20260505102136 | 37 | 292 | 0.0 | 0.0 | 0.00 | 0.03 | 0.00 | 94 | 1001.9 |
| 20260505102031 | 37 | 292 | 0.0 | 0.0 | 0.00 | 0.03 | 0.00 | 95 | 1001.9 |
| 20260505101929 | 37 | 292 | 0.0 | 0.0 | 0.00 | 0.03 | 0.00 | 95 | 1001.9 |
| 20260505101826 | 37 | 292 | 0.0 | 0.0 | 0.00 | 0.03 | 0.00 | 94 | 1001.9 |
| 20260505101724 | 36 | 292 | 0.0 | 0.0 | 0.00 | 0.03 | 0.00 | 94 | 1001.9 |
| 20260505101621 | 36 | 292 | 0.0 | 0.0 | 0.00 | 0.03 | 0.00 | 94 | 1001.8 |
| 20260505101518 | 36 | 292 | 0.0 | 0.0 | 0.00 | 0.03 | 0.00 | 94 | 1001.9 |
| 20260505101411 | 36 | 292 | 0.0 | 0.0 | 0.00 | 0.03 | 0.00 | 94 | 1001.9 |
| 20260505101306 | 36 | 292 | 0.0 | 0.0 | 0.00 | 0.03 | 0.00 | 94 | 1001.9 |
| 20260505101159 | 36 | 292 | 0.0 | 0.0 | 0.00 | 0.03 | 0.00 | 94 | 1002.0 |
| 20260505100837 | 36 | 292 | 0.0 | 0.0 | 0.00 | 0.03 | 0.00 | 94 | 1002.0 |
| 20260505100732 | 36 | 292 | 0.0 | 0.0 | 0.00 | 0.03 | 0.00 | 94 | 1002.0 |
| 20260505100630 | 36 | 292 | 0.0 | 0.0 | 0.00 | 0.03 | 0.00 | 94 | 1002.0 |
| 20260505100522 | 36 | 292 | 0.0 | 0.0 | 0.00 | 0.03 | 0.00 | 94 | 1002.0 |
| 20260505100415 | 36 | 292 | 0.0 | 0.0 | 0.00 | 0.03 | 0.00 | 94 | 1002.0 |
| 20260505100311 | 36 | 292 | 0.0 | 0.0 | 0.00 | 0.03 | 0.00 | 94 | 1002.0 |
| 20260505100205 | 36 | 292 | 0.0 | 0.0 | 0.00 | 0.03 | 0.00 | 94 | 1002.0 |
| 20260505095956 | 36 | 292 | 0.0 | 0.0 | 0.00 | 0.03 | 0.00 | 94 | 1002.0 |
| 20260505095849 | 36 | 292 | 0.0 | 0.0 | 0.00 | 0.03 | 0.00 | 94 | 1002.0 |
| 20260505095744 | 36 | 292 | 0.0 | 0.0 | 0.00 | 0.03 | 0.00 | 94 | 1002.0 |
| 20260505095424 | 36 | 292 | 0.0 | 0.0 | 0.00 | 0.03 | 0.00 | 94 | 1002.0 |
| 20260505095058 | 36 | 292 | 0.0 | 0.0 | 0.00 | 0.03 | 0.00 | 94 | 1002.0 |
| 20260505094953 | 35 | 292 | 0.0 | 0.0 | 0.00 | 0.03 | 0.00 | 94 | 1002.1 |
| 20260505094851 | 35 | 292 | 0.0 | 0.0 | 0.00 | 0.03 | 0.00 | 94 | 1002.0 |
| 20260505094747 | 35 | 292 | 0.0 | 0.0 | 0.00 | 0.03 | 0.00 | 94 | 1002.1 |
| 20260505094643 | 35 | 292 | 0.0 | 0.0 | 0.00 | 0.03 | 0.00 | 94 | 1002.0 |
| 20260505094319 | 35 | 292 | 0.0 | 0.0 | 0.00 | 0.03 | 0.00 | 94 | 1002.1 |
| 20260505094212 | 35 | 292 | 0.0 | 0.0 | 0.00 | 0.03 | 0.00 | 94 | 1002.1 |
| 20260505093845 | 35 | 292 | 0.0 | 0.0 | 0.00 | 0.03 | 0.00 | 94 | 1002.2 |
| 20260505093522 | 35 | 292 | 0.0 | 0.0 | 0.00 | 0.03 | 0.00 | 94 | 1002.2 |
| 20260505093416 | 35 | 292 | 0.0 | 0.0 | 0.00 | 0.03 | 0.00 | 94 | 1002.2 |
| 20260505093057 | 35 | 292 | 0.0 | 0.0 | 0.00 | 0.03 | 0.00 | 94 | 1002.3 |
| 20260505092950 | 35 | 292 | 0.0 | 0.0 | 0.00 | 0.03 | 0.00 | 94 | 1002.2 |
| 20260505092848 | 35 | 292 | 0.0 | 0.0 | 0.00 | 0.03 | 0.00 | 94 | 1002.2 |
| 20260505092527 | 35 | 292 | 0.0 | 0.0 | 0.00 | 0.03 | 0.00 | 94 | 1002.2 |
| 20260505092419 | 36 | 292 | 0.0 | 0.0 | 0.00 | 0.03 | 0.00 | 94 | 1002.2 |
| 20260505092312 | 36 | 292 | 0.0 | 0.0 | 0.00 | 0.03 | 0.00 | 94 | 1002.2 |
| 20260505092204 | 36 | 292 | 0.0 | 0.0 | 0.00 | 0.03 | 0.00 | 94 | 1002.2 |
| 20260505092101 | 35 | 292 | 0.0 | 0.0 | 0.00 | 0.03 | 0.00 | 94 | 1002.1 |
| 20260505091955 | 35 | 292 | 0.0 | 0.0 | 0.00 | 0.03 | 0.00 | 94 | 1002.1 |
| 20260505091853 | 35 | 292 | 0.0 | 0.0 | 0.00 | 0.03 | 0.00 | 94 | 1002.2 |
| 20260505091751 | 35 | 292 | 0.0 | 0.0 | 0.00 | 0.03 | 0.00 | 94 | 1002.2 |
| 20260505091649 | 36 | 292 | 0.0 | 0.0 | 0.00 | 0.03 | 0.00 | 94 | 1002.1 |
| 20260505091545 | 35 | 292 | 0.0 | 0.0 | 0.00 | 0.03 | 0.00 | 94 | 1002.2 |
| 20260505091001 | 36 | 292 | 0.0 | 0.0 | 0.00 | 0.03 | 0.00 | 94 | 1002.2 |
| 20260505090418 | 36 | 292 | 0.0 | 0.0 | 0.00 | 0.03 | 0.00 | 94 | 1002.3 |
| 20260505085832 | 36 | 292 | 0.0 | 0.0 | 0.00 | 0.03 | 0.00 | 94 | 1002.4 |
| 20260505085730 | 36 | 292 | 0.0 | 0.0 | 0.00 | 0.03 | 0.00 | 94 | 1002.3 |
| 20260505085624 | 36 | 292 | 0.0 | 0.0 | 0.00 | 0.03 | 0.00 | 94 | 1002.3 |
| 20260505085255 | 36 | 292 | 0.0 | 0.0 | 0.00 | 0.03 | 0.00 | 94 | 1002.2 |
| 20260505085148 | 36 | 292 | 0.0 | 0.0 | 0.00 | 0.03 | 0.00 | 94 | 1002.2 |
| 20260505085042 | 36 | 292 | 0.0 | 0.0 | 0.00 | 0.03 | 0.00 | 94 | 1002.2 |
| 20260505084721 | 36 | 292 | 0.0 | 0.0 | 0.00 | 0.03 | 0.00 | 93 | 1002.2 |
| 20260505084618 | 36 | 292 | 0.0 | 0.0 | 0.00 | 0.03 | 0.00 | 93 | 1002.2 |
| 20260505084513 | 36 | 292 | 0.0 | 0.0 | 0.00 | 0.03 | 0.00 | 93 | 1002.2 |
| 20260505084147 | 36 | 292 | 0.0 | 0.0 | 0.00 | 0.03 | 0.00 | 93 | 1002.2 |
| 20260505084043 | 36 | 292 | 0.0 | 0.0 | 0.00 | 0.03 | 0.00 | 93 | 1002.2 |
| 20260505083940 | 36 | 292 | 0.0 | 0.0 | 0.00 | 0.03 | 0.00 | 93 | 1002.2 |
| 20260505083835 | 36 | 292 | 0.0 | 0.0 | 0.00 | 0.03 | 0.00 | 93 | 1002.2 |
| 20260505083731 | 36 | 292 | 0.0 | 0.0 | 0.00 | 0.03 | 0.00 | 93 | 1002.2 |
| 20260505083626 | 36 | 292 | 0.0 | 0.0 | 0.00 | 0.03 | 0.00 | 93 | 1002.3 |
| 20260505083524 | 36 | 292 | 0.0 | 0.0 | 0.00 | 0.03 | 0.00 | 93 | 1002.3 |
| 20260505083418 | 36 | 292 | 0.0 | 0.0 | 0.00 | 0.03 | 0.00 | 93 | 1002.3 |
| 20260505083316 | 36 | 292 | 0.0 | 0.0 | 0.00 | 0.03 | 0.00 | 93 | 1002.2 |
| 20260505083210 | 36 | 292 | 0.0 | 0.0 | 0.00 | 0.03 | 0.00 | 93 | 1002.3 |
| 20260505083108 | 36 | 292 | 0.0 | 0.0 | 0.00 | 0.03 | 0.00 | 93 | 1002.3 |
| 20260505083006 | 36 | 292 | 0.0 | 0.0 | 0.00 | 0.03 | 0.00 | 93 | 1002.3 |
| 20260505082637 | 36 | 287 | 0.0 | 0.0 | 0.00 | 0.03 | 0.00 | 93 | 1002.4 |
| 20260505082534 | 36 | 287 | 0.0 | 0.0 | 0.00 | 0.03 | 0.00 | 93 | 1002.4 |
| 20260505082429 | 36 | 287 | 0.0 | 0.0 | 0.00 | 0.03 | 0.00 | 93 | 1002.4 |
| 20260505082327 | 36 | 287 | 0.0 | 0.0 | 0.00 | 0.03 | 0.00 | 93 | 1002.3 |
| 20260505082222 | 36 | 287 | 0.0 | 0.0 | 0.00 | 0.03 | 0.00 | 93 | 1002.4 |
| 20260505081640 | 36 | 287 | 0.0 | 0.0 | 0.00 | 0.03 | 0.00 | 93 | 1002.4 |
| 20260505081536 | 36 | 287 | 0.0 | 0.0 | 0.00 | 0.03 | 0.00 | 93 | 1002.5 |
| 20260505081434 | 36 | 287 | 0.0 | 0.0 | 0.00 | 0.03 | 0.00 | 93 | 1002.5 |
| 20260505081331 | 36 | 287 | 0.0 | 0.0 | 0.00 | 0.03 | 0.00 | 93 | 1002.5 |
| 20260505081228 | 36 | 287 | 0.0 | 0.0 | 0.00 | 0.03 | 0.00 | 93 | 1002.5 |
| 20260505081126 | 36 | 287 | 0.0 | 0.0 | 0.00 | 0.03 | 0.00 | 93 | 1002.5 |
| 20260505081019 | 36 | 287 | 0.0 | 0.0 | 0.00 | 0.03 | 0.00 | 93 | 1002.4 |
| 20260505080913 | 37 | 287 | 0.0 | 0.0 | 0.00 | 0.03 | 0.00 | 93 | 1002.5 |
| 20260505080806 | 37 | 287 | 0.0 | 0.0 | 0.00 | 0.03 | 0.00 | 93 | 1002.5 |
| 20260505080700 | 37 | 287 | 0.0 | 0.0 | 0.00 | 0.03 | 0.00 | 93 | 1002.6 |
| 20260505080557 | 37 | 287 | 0.0 | 0.0 | 0.00 | 0.03 | 0.00 | 93 | 1002.6 |
| 20260505080232 | 37 | 287 | 0.0 | 0.0 | 0.00 | 0.03 | 0.00 | 93 | 1002.6 |
| 20260505080127 | 37 | 287 | 0.0 | 0.0 | 0.00 | 0.03 | 0.00 | 93 | 1002.7 |
| 20260505080025 | 37 | 287 | 0.0 | 0.0 | 0.00 | 0.03 | 0.00 | 93 | 1002.7 |
| 20260505075922 | 37 | 287 | 0.0 | 0.0 | 0.00 | 0.03 | 0.00 | 93 | 1002.7 |
| 20260505075820 | 37 | 287 | 0.0 | 0.0 | 0.00 | 0.03 | 0.00 | 93 | 1002.7 |
| 20260505075715 | 37 | 287 | 0.0 | 0.0 | 0.00 | 0.03 | 0.00 | 93 | 1002.7 |
| 20260505075613 | 37 | 287 | 0.0 | 0.0 | 0.00 | 0.03 | 0.00 | 93 | 1002.7 |
| 20260505075509 | 37 | 287 | 0.0 | 0.0 | 0.00 | 0.03 | 0.00 | 93 | 1002.6 |
| 20260505075403 | 37 | 287 | 0.0 | 0.0 | 0.00 | 0.03 | 0.00 | 93 | 1002.6 |
| 20260505075301 | 37 | 287 | 0.0 | 0.0 | 0.00 | 0.03 | 0.00 | 93 | 1002.6 |
| 20260505075153 | 37 | 287 | 0.0 | 0.0 | 0.00 | 0.03 | 0.00 | 93 | 1002.7 |
| 20260505075048 | 37 | 287 | 0.0 | 0.0 | 0.00 | 0.03 | 0.00 | 93 | 1002.7 |
| 20260505074504 | 37 | 287 | 0.0 | 0.0 | 0.00 | 0.03 | 0.00 | 93 | 1002.6 |
| 20260505074359 | 37 | 287 | 0.0 | 0.0 | 0.00 | 0.03 | 0.00 | 93 | 1002.7 |
| 20260505074038 | 37 | 287 | 0.0 | 0.0 | 0.00 | 0.03 | 0.00 | 93 | 1002.7 |
| 20260505073933 | 37 | 287 | 0.0 | 0.0 | 0.00 | 0.03 | 0.00 | 93 | 1002.7 |
| 20260505073828 | 37 | 287 | 0.0 | 0.0 | 0.00 | 0.03 | 0.00 | 93 | 1002.7 |
| 20260505073723 | 37 | 287 | 0.0 | 0.0 | 0.00 | 0.03 | 0.00 | 93 | 1002.7 |
| 20260505073136 | 37 | 287 | 0.0 | 0.0 | 0.00 | 0.03 | 0.00 | 93 | 1002.7 |
| 20260505073033 | 37 | 287 | 0.0 | 0.0 | 0.00 | 0.03 | 0.00 | 93 | 1002.7 |
| 20260505072928 | 37 | 287 | 0.0 | 0.0 | 0.00 | 0.03 | 0.00 | 93 | 1002.7 |
| 20260505072823 | 37 | 287 | 0.0 | 0.0 | 0.00 | 0.03 | 0.00 | 93 | 1002.7 |
| 20260505072718 | 37 | 287 | 0.0 | 0.0 | 0.00 | 0.03 | 0.00 | 93 | 1002.8 |
| 20260505072615 | 37 | 287 | 0.0 | 0.0 | 0.00 | 0.03 | 0.00 | 93 | 1002.8 |
| 20260505072508 | 37 | 287 | 0.0 | 0.0 | 0.00 | 0.03 | 0.00 | 93 | 1002.8 |
| 20260505072405 | 37 | 261 | 0.0 | 0.0 | 0.00 | 0.03 | 0.00 | 93 | 1002.8 |
| 20260505072300 | 37 | 239 | 0.0 | 0.0 | 0.00 | 0.03 | 0.00 | 93 | 1002.7 |
| 20260505072155 | 37 | 103 | 0.0 | 0.0 | 0.00 | 0.03 | 0.00 | 93 | 1002.6 |
| 20260505072049 | 37 | 110 | 0.0 | 0.0 | 0.00 | 0.03 | 0.00 | 93 | 1002.6 |
| 20260505071943 | 37 | 194 | 0.0 | 0.0 | 0.00 | 0.03 | 0.00 | 93 | 1002.7 |
| 20260505071840 | 37 | 247 | 0.0 | 0.0 | 0.00 | 0.03 | 0.00 | 93 | 1002.9 |
| 20260505071735 | 38 | 244 | 0.0 | 0.0 | 0.00 | 0.03 | 0.00 | 93 | 1002.8 |
| 20260505071629 | 38 | 157 | 0.0 | 0.0 | 0.00 | 0.03 | 0.00 | 93 | 1002.7 |
| 20260505071523 | 38 | 157 | 0.0 | 0.0 | 0.00 | 0.03 | 0.00 | 93 | 1002.7 |
| 20260505071415 | 38 | 159 | 0.0 | 0.0 | 0.00 | 0.03 | 0.00 | 93 | 1002.6 |
| 20260505071308 | 38 | 245 | 0.0 | 0.0 | 0.00 | 0.03 | 0.00 | 93 | 1002.7 |
| 20260505071204 | 38 | 245 | 0.0 | 0.0 | 0.00 | 0.03 | 0.00 | 93 | 1002.8 |
| 20260505071059 | 38 | 245 | 0.0 | 0.0 | 0.00 | 0.03 | 0.00 | 92 | 1002.8 |
| 20260505070955 | 38 | 245 | 0.0 | 0.0 | 0.00 | 0.03 | 0.00 | 92 | 1002.7 |
| 20260505070852 | 38 | 245 | 0.0 | 0.0 | 0.00 | 0.03 | 0.00 | 92 | 1002.7 |
| 20260505070308 | 38 | 34 | 0.0 | 0.0 | 0.00 | 0.03 | 0.00 | 92 | 1002.6 |
| 20260505070201 | 38 | 17 | 0.0 | 0.0 | 0.00 | 0.03 | 0.00 | 92 | 1002.7 |
| 20260505070056 | 38 | 17 | 0.0 | 0.0 | 0.00 | 0.03 | 0.00 | 92 | 1002.8 |
| 20260505065949 | 38 | 17 | 0.0 | 0.0 | 0.00 | 0.03 | 0.00 | 92 | 1002.8 |
| 20260505065846 | 38 | 17 | 0.0 | 0.0 | 0.00 | 0.03 | 0.00 | 92 | 1002.7 |
| 20260505065743 | 38 | 17 | 0.0 | 0.0 | 0.00 | 0.03 | 0.00 | 92 | 1002.8 |
| 20260505065635 | 38 | 17 | 0.0 | 0.0 | 0.00 | 0.03 | 0.00 | 92 | 1002.8 |
| 20260505065314 | 38 | 19 | 0.0 | 0.0 | 0.00 | 0.03 | 0.00 | 92 | 1003.0 |
| 20260505065207 | 38 | 23 | 0.0 | 0.0 | 0.00 | 0.03 | 0.00 | 92 | 1003.0 |
| 20260505065101 | 38 | 23 | 0.0 | 0.0 | 0.00 | 0.03 | 0.00 | 92 | 1002.9 |
| 20260505064733 | 38 | 23 | 0.0 | 0.0 | 0.00 | 0.03 | 0.00 | 92 | 1002.9 |
| 20260505064629 | 38 | 23 | 0.0 | 0.0 | 0.00 | 0.03 | 0.00 | 92 | 1003.0 |
| 20260505064524 | 38 | 23 | 0.0 | 0.0 | 0.00 | 0.03 | 0.00 | 92 | 1002.9 |
| 20260505064200 | 38 | 23 | 0.0 | 0.0 | 0.00 | 0.03 | 0.00 | 92 | 1003.0 |
| 20260505064058 | 38 | 23 | 0.0 | 0.0 | 0.00 | 0.03 | 0.00 | 92 | 1003.0 |
| 20260505063953 | 39 | 23 | 0.0 | 0.0 | 0.00 | 0.03 | 0.00 | 92 | 1003.1 |
| 20260505063408 | 39 | 23 | 0.0 | 0.0 | 0.00 | 0.03 | 0.00 | 92 | 1003.0 |
| 20260505063304 | 39 | 23 | 0.0 | 0.0 | 0.00 | 0.03 | 0.00 | 92 | 1003.0 |
| 20260505063158 | 39 | 23 | 0.0 | 0.0 | 0.00 | 0.03 | 0.00 | 92 | 1003.0 |
| 20260505063053 | 39 | 23 | 0.0 | 0.0 | 0.00 | 0.03 | 0.00 | 92 | 1003.1 |
| 20260505062951 | 39 | 23 | 0.0 | 0.0 | 0.00 | 0.03 | 0.00 | 91 | 1003.1 |
| 20260505062844 | 39 | 23 | 0.0 | 0.0 | 0.00 | 0.03 | 0.00 | 91 | 1003.1 |
| 20260505062740 | 39 | 23 | 0.0 | 0.0 | 0.00 | 0.03 | 0.00 | 91 | 1003.1 |
| 20260505062150 | 39 | 23 | 0.0 | 0.0 | 0.00 | 0.03 | 0.00 | 91 | 1003.2 |
| 20260505061825 | 40 | 23 | 0.0 | 0.0 | 0.00 | 0.03 | 0.00 | 91 | 1003.3 |
| 20260505061459 | 40 | 23 | 0.0 | 0.0 | 0.00 | 0.03 | 0.00 | 91 | 1003.3 |
| 20260505061354 | 40 | 23 | 0.0 | 0.0 | 0.00 | 0.03 | 0.00 | 91 | 1003.3 |
| 20260505061249 | 40 | 23 | 0.0 | 0.0 | 0.00 | 0.03 | 0.00 | 91 | 1003.4 |
| 20260505061145 | 40 | 23 | 0.0 | 0.0 | 0.00 | 0.03 | 0.00 | 91 | 1003.4 |
| 20260505061042 | 40 | 23 | 0.0 | 0.0 | 0.00 | 0.03 | 0.00 | 91 | 1003.4 |
| 20260505060935 | 40 | 23 | 0.0 | 0.0 | 0.00 | 0.03 | 0.00 | 91 | 1003.4 |
| 20260505060831 | 40 | 23 | 0.0 | 0.0 | 0.00 | 0.03 | 0.00 | 91 | 1003.4 |
| 20260505060725 | 40 | 23 | 0.0 | 0.0 | 0.00 | 0.03 | 0.00 | 91 | 1003.4 |
| 20260505060618 | 40 | 23 | 0.0 | 0.0 | 0.00 | 0.03 | 0.00 | 91 | 1003.4 |
| 20260505060514 | 40 | 23 | 0.0 | 0.0 | 0.00 | 0.03 | 0.00 | 91 | 1003.5 |
| 20260505060411 | 40 | 23 | 0.0 | 0.0 | 0.00 | 0.03 | 0.00 | 91 | 1003.5 |
| 20260505060304 | 40 | 23 | 0.0 | 0.0 | 0.00 | 0.03 | 0.00 | 91 | 1003.6 |
| 20260505055942 | 41 | 23 | 0.0 | 0.0 | 0.00 | 0.03 | 0.00 | 91 | 1003.6 |
| 20260505055840 | 41 | 23 | 0.0 | 0.0 | 0.00 | 0.03 | 0.00 | 91 | 1003.6 |
| 20260505055737 | 41 | 23 | 0.0 | 0.0 | 0.00 | 0.03 | 0.00 | 91 | 1003.6 |
| 20260505055633 | 41 | 23 | 0.0 | 0.0 | 0.00 | 0.03 | 0.00 | 91 | 1003.6 |
| 20260505055529 | 41 | 23 | 0.0 | 0.0 | 0.00 | 0.03 | 0.00 | 91 | 1003.7 |
| 20260505055427 | 41 | 23 | 0.0 | 0.0 | 0.00 | 0.03 | 0.00 | 91 | 1003.7 |
| 20260505055320 | 41 | 23 | 0.0 | 0.0 | 0.00 | 0.03 | 0.00 | 91 | 1003.7 |
| 20260505055216 | 41 | 23 | 0.0 | 0.0 | 0.00 | 0.03 | 0.00 | 91 | 1003.7 |
| 20260505055108 | 41 | 23 | 0.0 | 0.0 | 0.00 | 0.03 | 0.00 | 91 | 1003.8 |
| 20260505055004 | 41 | 23 | 0.0 | 0.0 | 0.00 | 0.03 | 0.00 | 91 | 1003.8 |
| 20260505054902 | 41 | 23 | 0.0 | 0.0 | 0.00 | 0.03 | 0.00 | 91 | 1003.8 |
| 20260505054800 | 41 | 23 | 0.0 | 0.0 | 0.00 | 0.03 | 0.00 | 91 | 1003.8 |
| 20260505054658 | 41 | 23 | 0.0 | 0.0 | 0.00 | 0.03 | 0.00 | 91 | 1003.9 |
| 20260505054554 | 41 | 23 | 0.0 | 0.0 | 0.00 | 0.03 | 0.00 | 91 | 1003.8 |
| 20260505054448 | 41 | 23 | 0.0 | 0.0 | 0.00 | 0.03 | 0.00 | 91 | 1003.9 |
| 20260505054121 | 41 | 23 | 0.0 | 0.0 | 0.00 | 0.03 | 0.00 | 91 | 1003.9 |
| 20260505054017 | 41 | 23 | 0.0 | 0.0 | 0.00 | 0.03 | 0.00 | 91 | 1003.9 |
| 20260505053910 | 41 | 23 | 0.0 | 0.0 | 0.00 | 0.03 | 0.00 | 91 | 1003.9 |
| 20260505053807 | 41 | 23 | 0.0 | 0.0 | 0.00 | 0.03 | 0.00 | 91 | 1003.9 |
| 20260505053703 | 41 | 23 | 0.0 | 0.0 | 0.00 | 0.03 | 0.00 | 91 | 1003.9 |
| 20260505053340 | 41 | 23 | 0.0 | 0.0 | 0.00 | 0.03 | 0.00 | 91 | 1003.9 |
| 20260505053236 | 41 | 23 | 0.0 | 0.0 | 0.00 | 0.03 | 0.00 | 91 | 1003.9 |
| 20260505053134 | 41 | 23 | 0.0 | 0.0 | 0.00 | 0.03 | 0.00 | 91 | 1003.9 |
| 20260505053032 | 41 | 23 | 0.0 | 0.0 | 0.00 | 0.03 | 0.00 | 91 | 1003.9 |
| 20260505052925 | 41 | 23 | 0.0 | 0.0 | 0.00 | 0.03 | 0.00 | 91 | 1003.9 |
| 20260505052823 | 41 | 23 | 0.0 | 0.0 | 0.00 | 0.03 | 0.00 | 91 | 1003.9 |
| 20260505052716 | 41 | 23 | 0.0 | 0.0 | 0.00 | 0.03 | 0.00 | 91 | 1004.0 |
| 20260505052612 | 41 | 23 | 0.0 | 0.0 | 0.00 | 0.03 | 0.00 | 91 | 1004.0 |
| 20260505052510 | 41 | 23 | 0.0 | 0.0 | 0.00 | 0.03 | 0.00 | 91 | 1004.0 |
| 20260505052404 | 41 | 23 | 0.0 | 0.0 | 0.00 | 0.03 | 0.00 | 91 | 1004.1 |
| 20260505052301 | 41 | 23 | 0.0 | 0.0 | 0.00 | 0.03 | 0.00 | 91 | 1004.1 |
| 20260505052159 | 41 | 23 | 0.0 | 0.0 | 0.00 | 0.03 | 0.00 | 91 | 1004.1 |
| 20260505051357 | 41 | 24 | 0.0 | 0.0 | 0.00 | 0.03 | 0.00 | 91 | 1004.1 |
| 20260505051255 | 41 | 24 | 0.0 | 0.0 | 0.00 | 0.03 | 0.00 | 91 | 1004.1 |
| 20260505051153 | 41 | 24 | 0.0 | 0.0 | 0.00 | 0.03 | 0.00 | 91 | 1004.1 |
| 20260505051049 | 41 | 24 | 0.0 | 0.0 | 0.00 | 0.03 | 0.00 | 91 | 1004.2 |
| 20260505050944 | 41 | 24 | 0.0 | 0.0 | 0.00 | 0.03 | 0.00 | 91 | 1004.2 |
| 20260505050838 | 41 | 24 | 0.0 | 0.0 | 0.00 | 0.03 | 0.00 | 91 | 1004.2 |
| 20260505050736 | 41 | 24 | 0.0 | 0.0 | 0.00 | 0.03 | 0.00 | 91 | 1004.2 |
| 20260505050632 | 41 | 24 | 0.0 | 0.0 | 0.00 | 0.03 | 0.00 | 91 | 1004.2 |
| 20260505050525 | 41 | 24 | 0.0 | 0.0 | 0.00 | 0.03 | 0.00 | 91 | 1004.2 |
| 20260505050419 | 41 | 19 | 0.0 | 0.0 | 0.00 | 0.03 | 0.00 | 91 | 1004.2 |
| 20260505050314 | 41 | 19 | 0.0 | 0.0 | 0.00 | 0.03 | 0.00 | 91 | 1004.2 |
| 20260505050207 | 41 | 19 | 0.0 | 0.0 | 0.00 | 0.03 | 0.00 | 91 | 1004.2 |
| 20260505050104 | 41 | 19 | 0.0 | 0.0 | 0.00 | 0.03 | 0.00 | 91 | 1004.3 |
| 20260505041741 | 40 | 344 | 0.0 | 0.0 | 0.00 | 0.03 | 0.00 | 92 | 1004.9 |
| 20260505041638 | 40 | 336 | 0.0 | 0.0 | 0.00 | 0.03 | 0.00 | 92 | 1004.9 |
| 20260505041535 | 40 | 336 | 0.0 | 0.0 | 0.00 | 0.03 | 0.00 | 92 | 1004.9 |
| 20260505041429 | 40 | 336 | 0.0 | 0.0 | 0.00 | 0.03 | 0.00 | 92 | 1004.9 |
| 20260505041325 | 40 | 336 | 0.0 | 0.0 | 0.00 | 0.03 | 0.00 | 92 | 1004.8 |
| 20260505041220 | 40 | 336 | 0.0 | 0.0 | 0.00 | 0.03 | 0.00 | 92 | 1004.8 |
| 20260505041112 | 40 | 336 | 0.0 | 0.0 | 0.00 | 0.03 | 0.00 | 92 | 1004.8 |
| 20260505041009 | 41 | 336 | 0.0 | 0.0 | 0.00 | 0.03 | 0.00 | 92 | 1004.7 |
| 20260505040645 | 41 | 336 | 0.0 | 0.0 | 0.00 | 0.03 | 0.00 | 92 | 1004.6 |
| 20260505040538 | 40 | 336 | 0.0 | 0.0 | 0.00 | 0.03 | 0.00 | 92 | 1004.6 |
| 20260505040433 | 40 | 336 | 0.0 | 0.0 | 0.00 | 0.03 | 0.00 | 92 | 1004.6 |
| 20260505040327 | 40 | 336 | 0.0 | 0.0 | 0.00 | 0.03 | 0.00 | 92 | 1004.6 |
| 20260505040223 | 40 | 336 | 0.0 | 0.0 | 0.00 | 0.03 | 0.00 | 92 | 1004.6 |
| 20260505040119 | 40 | 336 | 0.0 | 0.0 | 0.00 | 0.03 | 0.00 | 92 | 1004.6 |
| 20260505040017 | 40 | 336 | 0.0 | 0.0 | 0.00 | 0.03 | 0.00 | 92 | 1004.6 |
| 20260505035651 | 40 | 336 | 0.0 | 0.0 | 0.00 | 0.03 | 0.03 | 91 | 1004.6 |
| 20260505035547 | 40 | 336 | 0.0 | 0.0 | 0.00 | 0.03 | 0.03 | 92 | 1004.6 |
| 20260505035227 | 40 | 336 | 0.0 | 0.0 | 0.00 | 0.03 | 0.03 | 91 | 1004.8 |
| 20260505035123 | 40 | 336 | 0.0 | 0.0 | 0.00 | 0.03 | 0.03 | 91 | 1004.8 |
| 20260505034758 | 40 | 336 | 0.0 | 0.0 | 0.00 | 0.03 | 0.03 | 91 | 1004.7 |
| 20260505034432 | 40 | 336 | 0.0 | 0.0 | 0.00 | 0.03 | 0.03 | 91 | 1004.7 |
| 20260505034325 | 40 | 336 | 0.0 | 0.0 | 0.00 | 0.03 | 0.03 | 91 | 1004.8 |
| 20260505034220 | 40 | 336 | 0.0 | 0.0 | 0.00 | 0.03 | 0.03 | 91 | 1004.8 |
| 20260505034117 | 40 | 336 | 0.0 | 0.0 | 0.00 | 0.03 | 0.03 | 92 | 1004.8 |
| 20260505034009 | 41 | 336 | 0.0 | 0.0 | 0.00 | 0.03 | 0.03 | 92 | 1004.8 |
| 20260505033905 | 41 | 336 | 0.0 | 0.0 | 0.00 | 0.03 | 0.03 | 91 | 1004.8 |
| 20260505033803 | 41 | 336 | 0.0 | 0.0 | 0.00 | 0.03 | 0.03 | 91 | 1004.8 |
| 20260505033440 | 41 | 336 | 0.0 | 0.0 | 0.00 | 0.03 | 0.03 | 92 | 1004.9 |
| 20260505033115 | 41 | 336 | 0.0 | 0.0 | 0.00 | 0.03 | 0.03 | 92 | 1004.9 |
| 20260505032753 | 41 | 336 | 0.0 | 0.0 | 0.00 | 0.03 | 0.03 | 92 | 1004.9 |
| 20260505032647 | 41 | 336 | 0.0 | 0.0 | 0.00 | 0.03 | 0.03 | 92 | 1004.9 |
| 20260505032543 | 41 | 336 | 0.0 | 0.0 | 0.00 | 0.03 | 0.03 | 92 | 1004.8 |
| 20260505032436 | 41 | 336 | 0.0 | 0.0 | 0.00 | 0.03 | 0.03 | 92 | 1004.9 |
| 20260505032331 | 41 | 336 | 0.0 | 0.0 | 0.00 | 0.03 | 0.03 | 92 | 1004.8 |
| 20260505032225 | 41 | 336 | 0.0 | 0.0 | 0.00 | 0.03 | 0.03 | 92 | 1004.8 |
| 20260505031901 | 41 | 336 | 0.0 | 0.0 | 0.00 | 0.03 | 0.03 | 92 | 1004.9 |
| 20260505031756 | 41 | 336 | 0.0 | 0.0 | 0.00 | 0.03 | 0.03 | 92 | 1004.9 |
| 20260505031650 | 41 | 336 | 0.0 | 0.0 | 0.00 | 0.03 | 0.03 | 92 | 1004.9 |
| 20260505031544 | 41 | 336 | 0.0 | 0.0 | 0.00 | 0.03 | 0.03 | 92 | 1004.9 |
| 20260505030956 | 41 | 336 | 0.0 | 0.0 | 0.00 | 0.03 | 0.03 | 92 | 1005.0 |
| 20260505030853 | 41 | 336 | 0.0 | 0.0 | 0.00 | 0.03 | 0.03 | 92 | 1005.0 |
| 20260505030748 | 41 | 336 | 0.0 | 0.0 | 0.00 | 0.03 | 0.03 | 92 | 1005.0 |
| 20260505030643 | 41 | 336 | 0.0 | 0.0 | 0.00 | 0.03 | 0.03 | 92 | 1004.9 |
| 20260505030540 | 41 | 336 | 0.0 | 0.0 | 0.00 | 0.03 | 0.03 | 92 | 1005.0 |
| 20260505030434 | 41 | 336 | 0.0 | 0.0 | 0.00 | 0.03 | 0.03 | 92 | 1005.0 |
| 20260505030327 | 40 | 336 | 0.0 | 0.0 | 0.00 | 0.03 | 0.03 | 92 | 1005.0 |
| 20260505030223 | 40 | 336 | 0.0 | 0.0 | 0.00 | 0.03 | 0.03 | 92 | 1005.0 |
| 20260505030117 | 40 | 336 | 0.0 | 0.0 | 0.00 | 0.03 | 0.03 | 92 | 1005.0 |
| 20260505030012 | 40 | 336 | 0.0 | 0.0 | 0.00 | 0.03 | 0.03 | 92 | 1005.0 |
| 20260505025906 | 40 | 336 | 0.0 | 0.0 | 0.00 | 0.03 | 0.03 | 92 | 1005.0 |
| 20260505025540 | 40 | 336 | 0.0 | 0.0 | 0.00 | 0.03 | 0.03 | 92 | 1005.0 |
| 20260505025439 | 40 | 336 | 0.0 | 0.0 | 0.00 | 0.03 | 0.03 | 92 | 1004.9 |
| 20260505025331 | 40 | 336 | 0.0 | 0.0 | 0.00 | 0.03 | 0.03 | 91 | 1005.0 |
| 20260505025226 | 40 | 336 | 0.0 | 0.0 | 0.00 | 0.03 | 0.03 | 91 | 1005.0 |
| 20260505025123 | 40 | 336 | 0.0 | 0.0 | 0.00 | 0.03 | 0.03 | 92 | 1005.0 |
| 20260505025018 | 40 | 336 | 0.0 | 0.0 | 0.00 | 0.03 | 0.03 | 92 | 1005.0 |
| 20260505024915 | 40 | 336 | 0.0 | 0.0 | 0.00 | 0.03 | 0.03 | 92 | 1004.9 |
| 20260505024813 | 40 | 336 | 0.0 | 0.0 | 0.00 | 0.03 | 0.03 | 92 | 1005.0 |
| 20260505024709 | 40 | 336 | 0.0 | 0.0 | 0.00 | 0.03 | 0.03 | 92 | 1005.1 |
| 20260505024603 | 40 | 336 | 0.0 | 0.0 | 0.00 | 0.03 | 0.03 | 92 | 1005.0 |
| 20260505024237 | 40 | 336 | 0.0 | 0.0 | 0.00 | 0.03 | 0.03 | 92 | 1005.1 |
| 20260505024133 | 40 | 309 | 0.0 | 0.0 | 0.00 | 0.03 | 0.03 | 92 | 1005.1 |
| 20260505024026 | 40 | 309 | 0.0 | 0.0 | 0.00 | 0.03 | 0.03 | 92 | 1005.1 |
| 20260505023701 | 40 | 309 | 0.0 | 0.0 | 0.00 | 0.03 | 0.03 | 91 | 1005.3 |
| 20260505023338 | 40 | 309 | 0.0 | 0.0 | 0.00 | 0.03 | 0.03 | 91 | 1005.3 |
| 20260505023014 | 40 | 309 | 0.0 | 0.0 | 0.00 | 0.03 | 0.03 | 91 | 1005.3 |
| 20260505022908 | 40 | 309 | 0.0 | 0.0 | 0.00 | 0.03 | 0.03 | 91 | 1005.3 |
| 20260505022801 | 40 | 309 | 0.0 | 0.0 | 0.00 | 0.03 | 0.03 | 91 | 1005.3 |
| 20260505022656 | 40 | 309 | 0.0 | 0.0 | 0.00 | 0.03 | 0.03 | 91 | 1005.3 |
| 20260505022554 | 40 | 309 | 0.0 | 0.0 | 0.00 | 0.03 | 0.03 | 91 | 1005.3 |
| 20260505022230 | 40 | 309 | 0.0 | 0.0 | 0.00 | 0.03 | 0.03 | 91 | 1005.4 |
| 20260505022126 | 40 | 309 | 0.0 | 0.0 | 0.00 | 0.03 | 0.03 | 91 | 1005.4 |
| 20260505022018 | 40 | 309 | 0.0 | 0.0 | 0.00 | 0.03 | 0.03 | 91 | 1005.4 |
| 20260505021915 | 40 | 309 | 0.0 | 0.0 | 0.00 | 0.03 | 0.03 | 91 | 1005.4 |
| 20260505021551 | 40 | 309 | 0.0 | 0.0 | 0.00 | 0.03 | 0.03 | 91 | 1005.4 |
| 20260505021443 | 40 | 309 | 0.0 | 0.0 | 0.00 | 0.03 | 0.03 | 91 | 1005.4 |
| 20260505021337 | 40 | 309 | 0.0 | 0.0 | 0.00 | 0.03 | 0.03 | 91 | 1005.5 |
| 20260505021231 | 40 | 309 | 0.0 | 0.0 | 0.00 | 0.03 | 0.03 | 91 | 1005.5 |
| 20260505021129 | 40 | 309 | 0.0 | 0.0 | 0.00 | 0.03 | 0.03 | 91 | 1005.4 |
| 20260505021026 | 40 | 309 | 0.0 | 0.0 | 0.00 | 0.03 | 0.03 | 91 | 1005.4 |
| 20260505020923 | 40 | 309 | 0.0 | 0.0 | 0.00 | 0.03 | 0.03 | 91 | 1005.4 |
| 20260505020819 | 40 | 309 | 0.0 | 0.0 | 0.00 | 0.03 | 0.03 | 91 | 1005.4 |
| 20260505020454 | 40 | 309 | 0.0 | 0.0 | 0.00 | 0.03 | 0.03 | 91 | 1005.4 |
| 20260505020347 | 40 | 309 | 0.0 | 0.0 | 0.00 | 0.03 | 0.03 | 91 | 1005.4 |
| 20260505020240 | 40 | 309 | 0.0 | 0.0 | 0.00 | 0.03 | 0.03 | 91 | 1005.4 |
| 20260505020133 | 40 | 309 | 0.0 | 0.0 | 0.00 | 0.03 | 0.03 | 91 | 1005.4 |
| 20260505020028 | 40 | 309 | 0.0 | 0.0 | 0.00 | 0.03 | 0.03 | 91 | 1005.4 |
| 20260505015922 | 40 | 309 | 0.0 | 0.0 | 0.00 | 0.03 | 0.03 | 91 | 1005.4 |
| 20260505015817 | 40 | 309 | 0.0 | 0.0 | 0.00 | 0.03 | 0.03 | 91 | 1005.4 |
| 20260505015713 | 40 | 309 | 0.0 | 0.0 | 0.00 | 0.03 | 0.03 | 91 | 1005.4 |
| 20260505015612 | 40 | 309 | 0.0 | 0.0 | 0.00 | 0.03 | 0.03 | 91 | 1005.4 |
| 20260505015248 | 40 | 308 | 0.0 | 0.0 | 0.00 | 0.03 | 0.03 | 90 | 1005.4 |
| 20260505015144 | 40 | 299 | 0.0 | 0.0 | 0.00 | 0.03 | 0.03 | 90 | 1005.4 |
| 20260505015038 | 40 | 299 | 0.0 | 0.0 | 0.00 | 0.03 | 0.03 | 90 | 1005.4 |
| 20260505014709 | 40 | 299 | 0.0 | 0.0 | 0.00 | 0.03 | 0.03 | 90 | 1005.4 |
| 20260505014342 | 41 | 299 | 0.0 | 0.0 | 0.00 | 0.03 | 0.03 | 90 | 1005.5 |
| 20260505014235 | 41 | 299 | 0.0 | 0.0 | 0.00 | 0.03 | 0.03 | 90 | 1005.6 |
| 20260505014133 | 41 | 299 | 0.0 | 0.0 | 0.00 | 0.03 | 0.03 | 90 | 1005.5 |
| 20260505014029 | 41 | 299 | 0.0 | 0.0 | 0.00 | 0.03 | 0.03 | 90 | 1005.5 |
| 20260505013927 | 41 | 299 | 0.0 | 0.0 | 0.00 | 0.03 | 0.03 | 90 | 1005.5 |
| 20260505013822 | 41 | 299 | 0.0 | 0.0 | 0.00 | 0.03 | 0.03 | 90 | 1005.5 |
| 20260505013719 | 41 | 299 | 0.0 | 0.0 | 0.00 | 0.03 | 0.03 | 90 | 1005.5 |
| 20260505013615 | 41 | 299 | 0.0 | 0.0 | 0.00 | 0.03 | 0.03 | 90 | 1005.5 |
| 20260505013508 | 41 | 299 | 0.0 | 0.0 | 0.00 | 0.03 | 0.03 | 90 | 1005.5 |
| 20260505013404 | 41 | 299 | 0.0 | 0.0 | 0.00 | 0.03 | 0.03 | 90 | 1005.5 |
| 20260505013303 | 41 | 299 | 0.0 | 0.0 | 0.00 | 0.03 | 0.03 | 90 | 1005.5 |
| 20260505013200 | 41 | 299 | 0.0 | 0.0 | 0.00 | 0.03 | 0.03 | 90 | 1005.6 |
| 20260505012832 | 41 | 241 | 0.0 | 0.0 | 0.00 | 0.03 | 0.03 | 89 | 1005.6 |
| 20260505012727 | 41 | 241 | 0.0 | 0.0 | 0.00 | 0.03 | 0.03 | 89 | 1005.6 |
| 20260505012623 | 41 | 241 | 0.0 | 0.0 | 0.00 | 0.03 | 0.03 | 89 | 1005.7 |
| 20260505012522 | 41 | 241 | 0.0 | 0.0 | 0.00 | 0.03 | 0.03 | 89 | 1005.7 |
| 20260505012418 | 41 | 241 | 0.0 | 0.0 | 0.00 | 0.03 | 0.03 | 89 | 1005.7 |
| 20260505012052 | 41 | 241 | 0.0 | 0.0 | 0.00 | 0.03 | 0.03 | 89 | 1005.7 |
| 20260505011948 | 41 | 241 | 0.0 | 0.0 | 0.00 | 0.03 | 0.03 | 89 | 1005.6 |
| 20260505011843 | 41 | 241 | 0.0 | 0.0 | 0.00 | 0.03 | 0.03 | 89 | 1005.7 |
| 20260505011738 | 41 | 241 | 0.0 | 0.0 | 0.00 | 0.03 | 0.03 | 89 | 1005.6 |
| 20260505011634 | 41 | 241 | 0.0 | 0.0 | 0.00 | 0.03 | 0.03 | 89 | 1005.6 |
| 20260505011530 | 41 | 241 | 0.0 | 0.0 | 0.00 | 0.03 | 0.03 | 89 | 1005.6 |
| 20260505011426 | 41 | 241 | 0.0 | 0.0 | 0.00 | 0.03 | 0.03 | 89 | 1005.7 |
| 20260505011100 | 41 | 241 | 0.0 | 0.0 | 0.00 | 0.03 | 0.03 | 88 | 1005.7 |
| 20260505010954 | 41 | 241 | 0.0 | 0.0 | 0.00 | 0.03 | 0.03 | 88 | 1005.6 |
| 20260505010848 | 41 | 241 | 0.0 | 0.0 | 0.00 | 0.03 | 0.03 | 88 | 1005.7 |
| 20260505010744 | 41 | 241 | 0.0 | 0.0 | 0.00 | 0.03 | 0.03 | 88 | 1005.7 |
| 20260505010638 | 41 | 241 | 0.0 | 0.0 | 0.00 | 0.03 | 0.03 | 88 | 1005.7 |
| 20260505010313 | 42 | 241 | 0.0 | 0.0 | 0.00 | 0.03 | 0.03 | 88 | 1005.7 |
| 20260505010206 | 42 | 241 | 0.0 | 0.0 | 0.00 | 0.03 | 0.03 | 88 | 1005.7 |
| 20260505005958 | 42 | 241 | 0.0 | 0.0 | 0.00 | 0.03 | 0.03 | 88 | 1005.7 |
| 20260505005850 | 42 | 241 | 0.0 | 0.0 | 0.00 | 0.03 | 0.03 | 88 | 1005.7 |
| 20260505005746 | 42 | 241 | 0.0 | 0.0 | 0.00 | 0.03 | 0.03 | 88 | 1005.7 |
| 20260505005639 | 42 | 241 | 0.0 | 0.0 | 0.00 | 0.03 | 0.03 | 88 | 1005.6 |
| 20260505005533 | 42 | 241 | 0.0 | 0.0 | 0.00 | 0.03 | 0.03 | 88 | 1005.6 |
| 20260505005209 | 42 | 241 | 0.0 | 0.0 | 0.00 | 0.03 | 0.03 | 88 | 1005.6 |
| 20260505005105 | 42 | 241 | 0.0 | 0.0 | 0.00 | 0.03 | 0.03 | 88 | 1005.6 |
| 20260505005002 | 42 | 241 | 0.0 | 0.0 | 0.00 | 0.03 | 0.03 | 87 | 1005.6 |
| 20260505004856 | 42 | 241 | 0.0 | 0.0 | 0.00 | 0.03 | 0.03 | 87 | 1005.5 |
| 20260505004527 | 42 | 241 | 0.0 | 0.0 | 0.00 | 0.03 | 0.03 | 87 | 1005.5 |
| 20260505004422 | 42 | 241 | 0.0 | 0.0 | 0.00 | 0.03 | 0.03 | 87 | 1005.5 |
| 20260505004315 | 43 | 241 | 0.0 | 0.0 | 0.00 | 0.03 | 0.03 | 86 | 1005.5 |
| 20260505004208 | 43 | 241 | 0.0 | 0.0 | 0.00 | 0.03 | 0.03 | 86 | 1005.5 |
| 20260505004104 | 43 | 241 | 0.0 | 0.0 | 0.00 | 0.03 | 0.03 | 86 | 1005.5 |
| 20260505004001 | 43 | 241 | 0.0 | 0.0 | 0.00 | 0.03 | 0.03 | 86 | 1005.4 |
| 20260505003854 | 43 | 241 | 0.0 | 0.0 | 0.00 | 0.03 | 0.03 | 86 | 1005.4 |
| 20260505003750 | 43 | 241 | 0.0 | 0.0 | 0.00 | 0.03 | 0.03 | 86 | 1005.4 |